GFSFLT1_prec_radar_000.txt.gz
Reflectivity
-20 18 -20 -19 -20 -20 -20 23 24 26 12 10 -7 -20 -15 -0 -13 -20 -19 -20 -20 -20 -20 -20 -20 -20 -20 -20 -20 -20 -20 -20
6 -10 -20 -20 -20 -20 -20 27 24 -20 -20 -20 -20 -20 -20 -20 -17 -20 -20 -20 -20 -20 -20 -20 -20 -20 -20 -20 -20 -20 -20 -20
-20 -20 -20 -20 -8 -20 -20 -20 -20 -20 -20 -20 -20 -20 -20 -20 -20 -20 -20 -20 -20 -20 -20 -20 -20 -20 -20 -20 -20 -20 -20 -20
-20 -20 -20 -16 -20 -20 -20 -20 -20 -20 -20 -20 -20 -20 -20 -20 -20 -20 -20 -20 -20 -20 -20 -20 -20 -20 -20 -20 -20 -20 -20 -20
-20 -20 -20 -20 -20 -20 -20 -20 -20 -20 -20 -20 -20 -20 -20 -20 -20 -20 -20 -20 -20 -20 -20 -20 -20 -20 -20 -20 -20 -20 -20 -20
-20 -11 -20 -20 -20 -20 -20 -20 -20 -20 -20 -20 -20 -20 -20 -20 -20 -20 -20 -20 -20 -20 -20 -20 -20 -20 -20 -20 -20 -20 -20 -20
-20 -20 -16 6 -19 -20 -20 -20 -20 -20 -20 -20 -20 -20 -20 -20 -20 -20 -20 -20 -20 -20 -20 -20 -20 -20 -20 -20 -20 -20 -20 -20
-20 -13 -20 -20 -20 -20 -20 -20 -20 -20 -20 -20 -20 -20 -20 -20 -20 -20 -20 -20 -20 -20 -20 -20 -20 -20 -20 -20 -5 14 -18 -20
-20 -18 -20 -20 -20 -20 -20 -20 -20 -20 -20 -20 -20 -20 -20 -20 -20 -20 -20 -20 -20 -20 -20 -20 -20 -20 -19 -20 5 -19 -19 -20
-20 -20 -20 -20 -20 -20 -20 -20 -20 -20 -20 -20 -20 -20 -20 -20 -20 -20 -20 -20 -20 -20 -20 -20 6 -20 -20 -9 -10 -20 -20 -20
-20 -20 -20 -20 -20 -20 -20 -20 -20 -20 -20 -20 -20 -20 -20 -20 -20 -20 -20 -20 -20 -20 -20 -20 8 -6 -20 -20 -16 -20 -20 -20
-20 -20 -20 -20 -20 -19 -2 4 -20 -20 -20 -20 -20 -20 -20 -20 -20 -20 -20 -20 -20 -20 -20 -18 -20 -20 -20 -20 -20 -20 -20 -20
-20 -20 -20 -17 17 -8 -20 -20 3 -16 -20 -20 -20 -20 -20 -20 -20 -20 -20 -20 -20 -20 -20 -20 -20 -20 -20 -20 -20 -20 -20 -20
-20 -20 -18 -8 -20 -20 -16 8 -20 -20 -20 -20 -20 -20 -20 -20 -20 -20 -20 -20 -20 -20 -20 -20 -20 -20 -20 -20 -20 -20 -20 -20
-20 -20 -20 -20 -20 -6 3 -20 -20 -20 -20 -20 -20 -20 -20 -20 -20 -20 -20 -20 -20 -20 -20 -20 -20 -20 -20 -20 -20 -20 -20 -20
-20 -20 -20 -20 15 -1 -20 -20 -20 -20 -20 -20 -20 -20 -20 -20 -20 -20 -20 -20 -20 -20 -20 -20 -20 -20 -20 -20 -20 -20 -20 -20
-20 -20 -20 3 -20 -20 -20 -20 -20 -20 -20 -20 -20 -20 -20 -20 -20 -20 -20 -20 -20 -20 -20 -20 -20 -20 -20 -20 -20 -20 -20 -20
-20 -20 -20 -20 -20 -20 -20 -20 -20 -20 -20 -20 -20 -20 -20 -20 -20 -20 -20 -20 -20 -20 -19 -15 -20 -20 -20 -20 -20 -20 -20 -20
-20 -20 -20 -20 -20 -20 -20 -20 -20 -20 -20 -20 -20 -20 -20 -20 -20 -20 -20 -20 -20 -20 -20 -20 -20 -20 -20 -20 -20 -20 -20 -20

GFSFLT1_prec_radar_003.txt.gz
Reflectivity
-20 -14 -20 -20 -20 -20 -20 21 -10 -6 21 -1 -20 -20 -20 -20 -20 -20 -19 -20 -20 -20 -20 -20 -20 -20 -20 -20 -20 -20 -20 -20
-20 -20 -20 -20 -20 -20 22 -20 -20 -20 -20 -20 -20 -20 -20 -20 -20 -20 -20 -20 -20 -20 -20 -20 -20 -20 -20 -20 -20 -20 -20 -20
-20 -20 -20 -20 -20 -20 -20 -20 -20 -20 -20 -20 -20 -20 -20 -20 -20 -20 -20 -20 -20 -20 -20 -20 -20 -20 -20 -20 -20 -20 -20 -20
-20 -20 -20 -20 -20 -20 -20 -20 -20 -20 -20 -20 -20 -20 -20 -20 -20 -20 -20 -20 -20 -20 -20 -20 -20 -20 -20 -20 -20 -20 -20 -20
-20 -20 -20 -19 -20 -20 -20 -20 -20 -20 -20 -20 -20 -20 -20 -20 -20 -20 -20 -20 -20 -20 -20 -20 -20 -20 -20 -20 -20 -20 -20 -20
-20 -20 -20 -20 -20 -20 -20 -20 -20 -20 -20 -20 -20 -20 -20 -20 -20 -20 -20 -20 -20 -20 -20 -20 -20 -20 -20 -20 -20 -20 -20 -20
-20 -20 -20 -20 -10 -20 -20 -20 -20 -20 -20 -20 -20 -20 -20 -20 -20 -20 -20 -20 -20 -20 -20 -20 -20 -20 -20 -20 -20 -20 -20 -20
-20 -20 -20 -20 -20 -20 -20 -20 -20 -20 -20 -20 -20 -20 -20 -20 -20 -20 -20 -20 -20 -20 -20 -20 -20 -20 -20 -20 -4 -20 -20 -20
-20 -20 -20 -20 -20 -20 -20 -20 -20 -20 -20 -20 -20 -20 -20 -20 -20 -20 -20 -20 -20 -20 -20 -20 -20 -20 -20 -19 -20 -20 -20 -20
-20 -20 -20 -20 -20 -20 -20 -20 -20 -20 -20 -20 -20 -20 -20 -20 -20 -20 -20 -20 -20 -20 -20 -20 -20 -15 -18 -10 -20 -20 -20 -20
-20 -20 -20 -20 -20 -20 -20 -20 -16 -20 -20 -20 -20 -20 -20 -20 -20 -20 -20 -20 -20 -20 -20 -20 -3 -20 -20 -20 -20 -20 -20 -20
-20 -20 -20 -20 -20 -20 -20 1 13 -20 -18 -20 -20 -20 -20 -20 -20 -20 -20 -20 -20 -20 -20 -18 -20 -20 -20 -20 -20 -20 -20 -20
-20 -20 -20 -20 -20 -20 8 -11 -20 0 -19 -20 -20 -20 -20 -20 -20 -20 -20 -20 -20 -20 -20 -20 -20 -20 -20 -20 -20 -20 -20 -20
-20 -20 -20 -20 -20 -15 -20 -20 10 -17 -20 -20 -20 -20 -20 -20 -20 -20 -20 -20 -20 -20 -20 -20 -20 -20 -20 -20 -20 -20 -20 -20
-20 -20 -20 -20 -20 -20 13 -10 -20 -20 -20 -20 -20 -20 -20 -20 -20 -20 -20 -20 -20 -20 -20 -20 -20 -20 -20 -20 -20 -20 -20 -20
-20 -20 -20 -20 -16 -7 -20 -20 -20 -20 -20 -20 -20 -20 -20 -20 -20 -20 -20 -20 -20 -20 -20 -20 -20 -20 -20 -20 -20 -20 -20 -20
-20 -20 -20 -20 -20 -20 -20 -20 -20 -20 -20 -20 -20 -20 -20 -20 -20 -20 -20 -20 -20 -20 -20 -20 -20 -20 -2 -20 -20 -20 -20 -20
-20 -20 -20 -20 -20 -20 -20 -20 -20 -20 -20 -20 -20 -20 -20 -20 -20 -20 -20 -20 -20 -20 -20 -20 -20 -20 -20 -20 -20 -20 -20 -20
-20 -20 -20 -20 -20 -20 -20 -20 -20 -20 -20 -20 -20 -20 -20 -20 -20 -20 -20 -20 -20 -20 -20 -20 -20 -20 -20 -20 -20 -20 -20 -20

GFSFLT1_prec_radar_006.txt.gz
Reflectivity
-20 -20 -20 -20 -20 -20 -20 -20 -20 -20 -20 -20 -20 -20 -20 -20 -20 -20 -20 -20 -20 -20 -20 -20 -20 -20 -20 -20 -20 -20 -20 -20
-20 -20 -20 -20 -20 -20 -20 -20 -20 -20 -20 -20 -20 -20 -20 -20 -20 -20 -20 -20 -20 -20 -20 -20 -20 -20 -20 -20 -20 -20 -20 -20
-20 -20 -20 -20 -20 -20 -20 -20 -20 -20 -20 -20 -20 -20 -20 -20 -20 -20 -20 -20 -20 -20 -20 -20 -20 -20 -20 -20 -20 -20 -20 -20
-20 -20 -20 -20 -20 -20 -20 -20 -20 -20 -20 -20 -20 -20 -20 -20 -20 -20 -20 -20 -20 -20 -20 -20 -20 -20 -20 -20 -20 -20 -20 -20
-20 -20 -20 -15 -18 -20 -20 -20 -20 -20 -20 -20 -20 -20 -20 -20 -20 -20 -20 -20 -20 -20 -20 -20 -20 -20 -20 -20 -20 -20 -20 -20
-20 -20 -20 -20 -20 -20 -20 -20 -20 -20 -20 -20 -20 -20 -20 -20 -20 -20 -20 -20 -20 -20 -20 -20 -20 -20 -20 -20 -20 -20 -20 -20
-20 -20 -20 -20 -20 -20 -20 -20 -20 -20 -20 -20 -20 -20 -20 -20 -20 -20 -20 -20 -20 -20 -20 -20 -20 -20 -20 -20 -20 -20 -20 -20
-20 -20 -20 -20 -20 -20 -20 -20 -20 -20 -20 -20 -20 -20 -20 -20 -20 -20 -20 -20 -20 -20 -20 -20 -20 -8 -20 -20 -19 -20 -20 -20
-20 -20 -20 -20 -20 -20 -20 -20 -20 -20 -20 -20 -9 -20 -20 -20 -20 -20 -20 -20 -20 -20 -20 -20 -20 -20 -20 -10 11 -20 -20 -20
-20 -20 -20 -20 -20 -20 -20 -20 -20 -20 -20 9 -9 -20 -20 -20 -20 -20 -20 -20 -20 -20 -20 -18 3 -20 -13 -18 -20 -20 -20 -20
-20 -20 -20 -20 -20 -20 -20 -20 -20 -20 -5 16 -20 -20 -20 -20 -20 -20 -20 -20 -20 -20 -20 6 -20 10 -5 -20 -20 -20 -20 -20
-20 -20 -20 -20 -20 -20 -20 -20 -20 -20 -11 -15 -20 -20 -20 -20 -20 -20 -20 -20 -20 -20 -20 -5 8 -20 -20 5 -20 -20 -20 -20
-20 -20 -20 -20 -20 -20 -20 -20 -20 -13 -4 -19 -20 -20 -20 -20 -20 -20 -20 -20 -20 -20 -20 -11 -0 -20 -19 -20 -20 -20 -20 -20
-20 -20 -20 -20 -20 -20 -20 -20 -19 7 -20 -20 -20 -20 -20 -20 -20 -20 -20 -20 -20 -20 -20 -15 -20 -20 -20 -20 -20 -20 -20 -20
-20 -20 -20 -20 -20 -20 -20 -20 -4 -20 -20 -20 -20 -20 -20 -20 -20 -20 -20 -20 -20 -20 -10 6 -18 -20 -20 -20 -20 -20 -20 -20
-20 -20 -20 -20 -20 -20 -20 -12 -20 -20 -20 -20 -20 -20 -20 -20 -20 -20 -20 -20 -20 1 -20 -20 -20 -20 -20 -20 -20 -18 -20 -20
-20 -20 -20 -20 -20 -20 -19 -20 -20 -20 -20 -20 -20 -20 -20 -20 -20 -20 -20 -20 -20 0 7 15 -20 -20 -20 -20 -20 -20 -20 -20
-20 -20 -20 -20 -20 -20 -20 -20 -20 -20 -20 -20 -20 -20 -20 -20 -20 -20 -20 -20 -20 -20 0 16 10 4 -20 -20 -20 -20 -20 -20
-20 -20 -20 -20 -20 -20 -20 -20 -20 -20 -20 -20 -20 -20 -20 -20 -20 -20 -20 -20 -20 -20 -20 -20 -7 -20 -20 -20 -20 -20 -20 -20

GFSFLT1_prec_radar_009.txt.gz
Reflectivity
-20 -20 -20 -20 -20 -20 -20 -20 -20 16 -20 -20 -20 -20 -20 -20 -20 -20 -20 -20 -20 -20 -20 -20 -20 -20 -20 -20 -20 -20 -20 -20
-20 -20 -20 -20 -20 -20 -20 -20 -20 -20 -20 -20 -20 -20 -20 -20 -20 -20 -20 -20 -20 -20 -20 -20 -20 -20 -20 -20 -20 -20 -20 -20
-20 -20 -20 -20 -20 -20 -20 -20 -20 -20 -20 -20 -20 -20 -20 -20 -20 -20 -20 -20 -20 -20 -20 -20 -20 -20 -20 -20 -20 -20 -20 -20
-20 -20 -20 -20 -20 -20 -20 -20 -20 -20 -20 -20 -20 -20 -20 -20 -20 -20 -20 -20 -20 -20 -20 -20 -20 -20 -20 -20 -20 -20 -20 -20
-20 -20 -20 -20 -20 -20 -20 -20 -20 -20 -20 -20 -20 -20 -20 -20 -20 -20 -20 -20 -20 -20 -20 -20 -20 -20 -20 -20 -20 -20 -20 -20
-20 -20 -20 -20 -20 -20 -20 -20 -20 -20 -20 -20 -20 -20 -20 -20 -20 -20 -20 -20 -20 -20 -20 -20 -20 -20 -20 -20 -20 -20 -20 -20
-20 -20 -20 -20 -20 -20 -20 -20 -20 -20 -20 -20 -20 -20 -20 -20 -20 -20 -20 -20 -20 -20 -20 -20 -20 -20 -20 -20 -20 -19 -6 -20
-20 -20 -20 -20 -20 -20 -20 -20 -20 -20 -20 -20 -20 -20 -19 -20 -20 -20 -20 -20 -20 -20 -20 -20 -20 -20 -20 -20 -20 -20 0 -14
-20 -20 -20 -20 -20 -20 -20 -20 -20 -20 -20 -20 -20 -20 -8 -13 -20 -20 -20 -20 -20 -20 -20 -20 -20 -20 -20 -20 -15 15 15 7
-20 -20 -20 -20 -20 -20 -20 -20 -20 -20 -20 -20 -20 -20 -13 -20 -20 -20 -20 -20 -20 -20 -20 -20 -20 -20 -5 18 -20 -18 -20 -20
-20 -20 -20 -20 -20 -20 -20 -20 -20 -20 -20 -20 -20 -17 -18 -20 -20 -20 -20 -20 -20 -20 -20 -20 -20 -20 -20 -20 -17 -20 -2 -18
-20 -20 -20 -20 -20 -20 -20 -20 -20 -20 -20 -20 -20 -3 -6 -20 -20 -20 -20 -20 -20 -20 -20 -20 -20 -20 -20 -20 -20 -20 -2 -20
-20 -20 -20 -20 -20 -20 -20 -20 -20 -20 -20 -20 -20 -20 -20 -20 -20 -20 -20 -20 -20 -20 -20 -20 -20 -20 -20 -20 -20 -20 -20 3
-20 -20 -20 -20 -20 -20 -20 -20 -20 -20 -20 -20 -20 -20 -20 -20 -20 -20 -20 -20 -20 -20 -20 -20 -20 -20 -16 -20 -20 -15 10 -20
-20 -20 -20 -20 -20 -20 -20 -20 -20 -20 -20 -19 -20 -20 -20 -20 -20 -20 -20 -20 -20 -20 -20 -20 -20 -19 -20 -20 -20 -13 -20 7
-20 -20 -20 -20 -20 -20 -20 -20 -20 -20 -7 -20 -20 -20 -20 -20 -20 -20 -20 -20 -20 -20 -20 -20 -20 -14 -20 -20 -20 -20 -20 -20
-20 -20 -20 -20 -20 -20 -20 -20 -20 -20 -18 -20 -20 -20 -14 -20 -20 -20 -20 -20 -20 -20 -20 -20 10 -6 -15 -20 -20 -20 -20 -20
-20 -20 -20 -20 -20 -20 -20 -20 -20 -17 3 -20 -17 -9 0 -20 -20 -20 -20 -20 -20 -20 -20 -20 -20 18 -20 -20 -20 -20 -20 -20
-20 -20 -20 -20 -20 -20 -20 -20 -20 7 -20 9 19 4 -20 -20 -20 -20 -20 -20 -20 -20 -20 -20 -20 -18 -20 -20 -20 -20 -20 -20

GFSFLT1_prec_radar_012.txt.gz
Reflectivity
-20 -20 -20 -20 -20 -20 -20 -20 -20 -20 -20 -20 -20 -20 -20 -20 -20 -20 -20 -20 -20 -20 -20 -20 -20 -20 -20 -20 -20 -20 -20 -20
-20 -20 -20 -20 -20 -20 -20 -20 -20 -20 -20 -20 -20 -20 -20 -20 -20 -20 -20 -20 -20 -20 -20 -20 -20 -20 -20 -20 -20 -20 -20 -20
-20 -20 -20 -20 -20 -20 -20 -20 -20 -20 -20 -20 -20 -20 -20 -20 -20 -20 -20 -20 -20 -20 -20 -20 -20 -20 -20 -20 -20 -20 -20 -20
-20 -20 -20 -20 -20 -19 -20 11 -20 -20 -20 -20 -20 -20 -20 -20 -20 -20 -20 -20 -20 -20 -20 -20 -20 -20 -20 -20 -20 -20 -20 -20
-20 -20 -20 -20 4 9 -20 -9 -20 -20 -20 -20 -20 -20 -20 -20 -20 -20 -20 -20 -20 -20 -20 -20 -20 -20 -20 -20 -20 -20 -20 -20
-20 -20 -20 -20 6 -17 -16 -20 -20 -20 -20 -20 -20 -20 -20 -20 -20 -20 -20 -20 -20 -20 -20 -20 -20 -20 -20 -20 -20 -20 -20 -20
-20 -20 -20 -20 2 -19 -20 -20 -20 -20 -20 -20 -20 -20 -20 -20 -20 -20 -20 -20 -20 -20 -20 -20 -20 -20 -20 -20 -20 -20 -20 -20
-20 -20 -20 -10 -10 -20 -20 -20 -20 -20 -20 -20 -20 -20 -20 -20 -20 -20 -20 -20 -20 -20 -20 -20 -20 -20 -20 -20 -20 -20 -20 -20
-20 -20 -20 -20 -20 -20 -20 -20 -20 -20 -20 -20 -20 -20 -20 -20 -20 -20 -20 -14 -20 -20 -20 -20 -20 -20 -20 -20 -20 -20 -20 -20
-20 -20 -20 -20 -20 -20 -20 -20 -20 -20 -20 -20 -20 -20 -20 -20 -20 -20 -20 -20 -20 -20 -20 -20 -20 -20 -20 -20 -20 -20 -20 -20
-20 -20 -20 -20 -20 -20 -20 -20 -20 -20 -20 -20 -20 -20 -20 -20 -20 -20 -20 -20 -20 -20 -20 -20 -20 -20 -12 -20 -20 -19 -19 -20
-20 -20 -20 -20 -20 -20 -20 -20 -20 -20 -20 -20 -20 -20 -20 -18 -20 -20 -20 -20 -20 -20 -20 -20 -20 -20 -20 -20 -20 -20 -20 -20
-20 -20 -20 -20 -20 -20 -20 -20 -20 -20 -20 -20 -20 -20 -18 12 -20 -20 -20 -20 -20 -20 -20 -20 -20 -20 -20 -20 -20 -20 -20 -20
-20 -20 -20 -20 -20 -20 -20 -20 -20 -20 -20 -20 -20 -20 -17 9 12 -20 -20 -20 -20 -20 -20 -20 -20 -20 -20 -20 -20 -20 -20 -20
-20 -20 -20 -20 -20 -20 -20 -20 -20 -20 -20 -20 -20 -20 -20 -12 -17 -20 -20 -20 -20 -20 -20 -20 -20 -20 -20 -20 -20 -20 -20 -20
-20 -20 -20 -20 -20 -20 -20 -20 -20 -20 -20 -20 1 3 -19 -12 -6 -20 4 -8 -20 -20 -20 -20 -20 -20 -16 -20 -20 -20 -20 -20
-20 -20 13 -20 -20 -20 -20 -20 -20 -20 -20 -17 1 -9 -10 -20 -19 11 -6 -20 -20 -20 -20 -20 -20 3 -17 -0 -14 -20 -20 -20
-20 -20 -20 -20 -20 -20 -20 -20 -20 -20 -20 -14 1 -20 -16 16 4 6 9 11 -13 -10 -20 -17 -14 -20 -13 -20 -20 -20 -20 -20
-20 -20 -20 -20 -20 -20 -20 -20 -20 -20 -20 -5 -20 13 5 18 5 14 -15 -11 -11 -19 -18 -14 -19 -16 -20 -20 -20 -20 -20 -20

GFSFLT1_prec_radar_015.txt.gz
Reflectivity
-20 -20 -20 -20 -20 -20 -20 -20 -20 -20 -20 -20 -20 -20 -20 -20 -20 -20 -20 -20 -20 -20 -20 -20 -20 -20 -20 -20 -20 -20 -20 -20
-20 -20 -20 -20 -20 -20 -20 -20 -20 -20 -20 -20 -20 -20 -20 -20 -20 -20 -20 -20 -20 -20 -20 -20 -20 -20 -20 -20 -20 -20 -20 -20
-20 -20 -20 -20 -20 -20 -20 -20 -20 -20 -20 -20 -20 -20 -20 -20 -20 -20 -20 -20 -20 -20 -20 -20 -20 -20 -20 -20 -20 -20 -20 -20
-20 -20 -20 -20 -20 -20 -20 -20 -20 -20 -20 -20 -20 -20 -20 -20 -20 -20 -20 -20 -20 -20 -20 -20 -20 -20 -20 -20 -20 -20 -20 -20
-20 -1 -20 -20 -20 -20 -20 -20 -20 -20 -20 -20 -20 -20 -20 -20 -20 -20 -20 -20 -20 -20 -20 -20 -20 -20 -20 -20 -20 -20 -20 -20
-20 -19 -20 -19 -20 -15 -20 -20 -20 -20 -20 -20 -20 -20 -20 -20 -20 -20 -20 -20 -20 -20 -20 -20 -20 -20 -20 -20 -20 -20 -20 -20
-20 -20 -20 -20 -20 19 -9 -3 -20 -20 -20 -20 -20 -20 -20 -20 -20 -20 -20 -20 -20 -20 -20 -20 -20 -20 -20 -20 -20 -20 -20 -20
-20 -20 -20 -20 -20 3 -4 -11 -20 -20 -20 -20 -20 -20 -20 -20 -20 -20 -20 -20 -20 -20 -20 -20 -20 -20 -20 -20 -20 -20 -20 -20
-20 -20 -20 -20 -20 -20 -20 -20 -20 -20 -20 -20 -20 -20 -20 -20 -20 -20 -20 -20 -20 -20 -20 -20 -20 -20 -20 -20 -20 -20 -20 -20
-16 -16 -17 -20 -20 -20 -20 -20 -20 -20 -20 -20 -20 -20 -20 -20 -20 -20 -20 -20 5 -20 -20 -20 -20 -20 -20 -20 -20 -20 -20 -20
-20 -20 -20 -20 -20 -20 -20 -20 -20 -20 -20 -20 -20 -20 -20 -20 -20 -20 -20 -16 -6 -11 10 -20 -20 -20 -20 -20 -20 -20 -20 -20
-20 -20 -20 -20 -20 -20 -20 -20 -20 -20 -20 -20 -20 -20 -20 -20 -20 -20 -19 2 -20 -11 -20 -20 -20 -20 -20 -20 -20 -20 -20 -20
-20 -20 -20 -20 -20 -20 -20 -20 -20 -20 -20 -20 -20 -20 -20 -20 -20 -20 -17 -16 -20 -18 -20 -20 -20 -20 -20 -20 -20 -20 -20 -20
-20 -20 -20 -20 -20 -20 -20 -20 -20 -20 -20 -20 -20 -20 -20 -20 -20 -7 -14 -19 -20 -3 -2 -20 -20 -20 -20 -20 -20 -20 -20 -20
-20 -20 -20 -20 -20 -20 -20 -20 -20 -20 -20 -20 -20 -20 -20 -15 -19 -2 -19 -20 -19 -2 -20 -18 -20 -20 -10 5 -20 -20 -18 -20
-20 -20 -20 -20 -20 -20 -20 9 -20 -20 -20 -20 -20 -20 -20 -20 -7 -3 -3 -20 -17 -9 -18 -20 -12 -4 3 0 -20 -3 -10 -20
-20 -20 -20 -20 14 12 17 -3 -20 -20 -20 -20 -20 -20 -20 -20 -7 -5 -18 4 -1 10 8 11 6 -6 -20 -20 -0 -17 -20 -20
-20 -20 -20 -20 -20 4 -20 -20 -20 -20 -20 -20 -20 -20 -20 -20 -20 7 16 7 -2 -6 -2 -11 -16 -20 -20 -2 -3 -20 -20 -20
-20 -20 -20 -20 -20 -20 -20 -20 -20 -20 -20 -20 -20 -20 -20 -20 6 18 19 5 2 -20 -20 -20 -20 -20 -14 -20 -20 -20 -20 -20

GFSFLT1_prec_radar_021.txt.gz
Reflectivity
-20 -20 -20 -20 -20 -20 -20 -20 -20 -20 -20 -20 9 -20 -20 -20 -20 -20 -20 -20 -20 -20 -20 -20 -20 -20 -20 -20 -20 -20 -20 -20
-20 -20 -20 -20 -20 -20 -20 -20 -20 -20 -20 -20 -20 -20 -20 -20 -20 -20 -20 -20 -20 -20 -20 -20 -20 -20 -20 -20 -20 -20 -20 -20
-20 -20 -20 -20 -20 -20 -20 -20 -20 -20 -20 -20 -20 -20 -20 -20 -20 -20 -20 -20 -20 -20 -20 -20 -20 -20 -20 -20 -20 -20 -20 -20
-20 -20 -20 -20 -20 -20 -20 -20 -20 -20 -20 -20 -20 -20 -20 -20 -20 -20 -20 -20 -20 -20 -20 -20 -20 -20 -20 -20 -20 -20 -20 -20
-20 -20 -20 -20 -20 -20 -20 -20 -20 -20 -20 -20 -20 -20 -20 -20 -20 -20 -20 -20 -20 -20 -20 -20 -20 -20 -20 -20 -20 -20 -20 -20
-20 -20 -20 -20 -20 -20 -20 -20 -20 -20 -20 -20 -20 -20 -20 -20 -20 -20 -20 -20 -20 -20 -20 -20 -20 -20 -20 -14 -20 -20 -20 -20
-20 -20 -20 -20 -20 -20 -20 -20 -20 -2 -20 -20 -20 14 16 -13 -20 -20 -20 -20 -20 -20 -20 -20 -20 1 15 -7 -20 -20 -20 -20
-20 -20 -20 -20 -20 1 -17 -20 20 -18 -20 -20 -13 -20 -20 21 -11 -20 -20 -20 -20 -20 -20 -20 -20 25 -14 -18 -20 -20 -20 -20
-20 -20 -16 -20 -15 -14 -20 -20 -5 -20 -20 -20 -20 19 -3 -10 -20 -20 -20 -20 -20 -20 -20 -3 27 -1 -20 -14 -20 -20 -20 -20
-20 -20 -20 -20 -16 -20 -16 -10 -14 -20 -13 27 -1 3 -15 -20 -20 -20 -9 -17 -18 -18 14 4 7 12 -19 -20 -3 0 -20 -20
-20 -20 -20 -20 -20 -6 -20 -7 -20 -20 -20 -20 9 22 -4 -20 -20 -20 -9 -1 5 -4 -2 16 -18 -20 -20 -20 -12 -20 -20 -20
-20 -20 -20 -20 -20 -20 -20 -20 -20 -20 24 13 4 -17 -9 -9 -20 -20 -20 -20 -18 -20 -18 -20 -20 -19 -19 -20 -20 -20 -20 -20
-20 -20 -20 -20 -20 -20 -20 24 -20 19 19 -19 19 17 15 -2 -20 -3 -14 -18 -20 -20 -20 -20 -20 -10 10 -19 -20 -20 -20 -20
-20 -20 -20 -20 -20 -20 -20 10 19 -4 22 22 -4 -20 -20 -20 6 2 -20 -20 -20 -20 -20 -20 -4 15 -16 -20 -20 -20 -20 -20
-20 -20 -20 -20 -20 -5 24 16 16 -19 21 -20 -10 -20 -20 -7 -20 -20 -20 -20 -20 -20 -20 -20 18 -20 -20 -20 -20 -20 -20 -20
-20 -20 -20 -11 12 6 -20 -20 18 -8 -10 -9 -20 -20 -20 -20 -19 -14 -19 -20 -19 -20 -20 19 -16 -20 -20 -20 -20 -20 -20 -20
-20 -20 -20 -20 -20 -20 -20 -20 20 6 -20 -20 -20 -20 -20 -20 -16 -19 -17 -18 -15 -3 8 18 -12 -20 -20 -20 -20 -20 -20 -20
-20 -20 -20 -20 -20 -20 -20 -20 -20 -20 -20 -20 -17 4 -14 -20 -20 -20 -20 -17 -6 11 25 20 -3 -20 -20 -20 -20 -20 -20 -20
-20 -20 -20 -20 -20 -20 -20 -20 -20 -20 -20 -20 -6 -1 -20 -20 -20 -20 -20 11 34 13 28 4 -14 -20 -20 -20 -20 -20 -20 -20

GFSFLT1_prec_radar_024.txt.gz
Reflectivity
-20 -20 -20 -20 -20 -20 -20 -20 -20 -20 -20 -20 -20 -20 -20 -20 -20 -20 -20 -20 -20 -20 -20 -20 -20 -20 -20 -20 -20 -20 -20 -20
-20 -20 -20 -20 -20 -20 -20 -20 -20 -20 -20 -20 -20 -20 -20 -20 -20 -20 -20 -20 -20 -20 -20 -20 -20 -20 -20 -20 -20 -20 -20 -20
-20 -20 -20 -20 -20 -20 -20 -20 -20 -20 -20 -20 -20 -20 -20 -20 -20 -20 -20 -20 -20 -20 -20 -20 -20 -20 -20 -20 -20 -20 -20 -20
-20 -20 -20 -20 -20 -20 -20 -20 -20 -20 -20 -20 -20 -2 -20 -20 -20 -20 -20 -20 -20 -20 -20 -20 -20 -20 -20 -20 -20 -20 -20 -20
-20 -20 -20 -20 -20 -20 -20 -20 -20 -20 -20 -20 -20 -20 -20 -20 -20 -20 -20 -20 -20 -20 -20 -20 -20 -20 -20 -20 -20 3 -20 -20
-20 -20 -20 -20 -20 -20 -20 -20 -20 -20 -20 -20 -20 -20 -20 -20 -20 -20 -20 -20 -20 -20 -20 -20 -20 -20 -19 -14 17 8 -20 -20
-20 -20 -20 -20 -20 -20 -20 -20 -20 -20 -20 -11 -12 -18 6 -20 -6 14 -20 -20 -20 -20 -20 -20 -20 -17 -2 -3 -20 -20 -20 -20
-20 -20 -20 -20 -20 -20 -20 -20 -20 -20 -15 -7 13 -20 -20 -20 -20 -1 9 -5 -6 -20 -20 -20 14 13 -20 9 14 -3 -20 -20
-20 -20 -20 -20 -20 -20 -20 -20 5 -19 -10 32 28 20 11 -19 -17 10 7 -20 5 -20 -20 -13 -13 -17 -20 9 -20 -20 -20 -20
-20 -20 -20 -20 -14 -15 -20 -20 -20 -20 18 21 11 17 21 -14 22 21 -20 -20 -20 -0 -20 -11 -13 -16 18 -14 -20 -20 -20 -20
-20 -20 -20 -20 -20 -20 -20 -20 -20 -20 20 19 7 21 22 22 19 3 -9 -20 -14 6 22 -9 -17 -8 -20 -20 -18 -20 -20 -20
-20 -20 -20 -20 -20 -20 -20 -20 -20 23 -20 29 27 -9 23 22 23 16 -16 -17 6 2 -6 -20 -18 -20 -20 -20 -20 -20 -20 -20
-20 -20 -20 -20 -20 -20 -20 -20 -20 -10 -14 -6 23 21 20 15 7 21 3 -14 -20 -6 -10 -20 -20 -20 -20 -17 -20 -20 -20 -20
-20 -20 -20 -20 -20 -20 -10 -11 -20 -20 -20 22 -20 20 16 16 23 5 -9 -20 -10 -19 -20 -20 -16 -20 0 0 -18 -20 -20 -20
-20 -20 -20 -20 -20 -20 -20 -13 1 -20 -18 -20 -7 23 13 5 -5 10 -20 -20 -16 -15 -2 -15 -20 -19 21 10 3 -20 -20 -20
-20 -20 -20 -20 -20 0 -20 -20 -20 -20 -13 -17 -3 -19 1 -2 -20 -20 -20 -20 -20 -12 -20 -20 3 33 21 -11 -20 -20 -20 -20
-20 -20 -20 -20 -20 -20 -20 -20 -20 -20 -20 -20 -20 12 -19 2 -20 -20 -7 -19 -19 -15 -20 1 21 16 -11 -20 -20 -20 -20 -20
-20 -20 -20 -20 -20 -20 -20 -20 -20 -20 -20 -20 -20 -20 -20 5 -20 -20 -11 12 18 16 17 39 26 -19 -16 -20 -20 -20 -20 -20
-20 -20 -20 -20 -20 -20 -20 -20 -20 -20 -20 -20 -20 -20 -8 -13 -10 -14 13 4 17 6 21 28 6 -19 4 -20 -20 -20 -20 -20

GFSFLT1_prec_radar_030.txt.gz
Reflectivity
-20 -20 -20 -20 -20 -20 -20 -20 -9 8 25 -20 -20 -20 -20 -10 -20 -20 -14 -20 -20 -20 -20 -20 -20 -20 -20 -20 -20 -20 -20 -20
-20 -20 -20 -20 -20 -20 -20 -20 -20 -2 0 -20 -20 -20 27 -20 -20 -20 -20 -20 -20 -20 -20 -20 -20 -20 -20 -20 -20 -20 -20 -20
-20 -20 -20 -20 -20 -20 -20 -20 -20 -20 -20 -20 -20 -20 -20 -20 -20 -20 -20 -20 -20 -20 -20 -20 -20 -20 -20 -20 -20 -20 -20 -20
-20 -20 -20 -20 -20 -20 -20 -20 -20 -20 -20 -20 -20 -20 -20 -20 -20 -20 -20 -20 -20 -20 -20 -20 -20 -20 -20 -20 -20 -20 -20 -20
-20 -20 -20 -20 -20 -20 -20 -20 -20 -20 -20 -20 -20 -20 -20 -20 -10 -18 -20 -20 -20 -20 -20 -20 -20 -20 -20 -20 -20 -20 -17 -20
-20 -20 -20 -20 -20 -20 -20 -20 -20 -20 -20 -20 -20 -20 -20 -20 -20 -20 -20 -20 -20 -20 -19 -20 -20 -20 -20 -20 -17 -3 -20 -20
-20 -20 -20 -20 -20 -20 -20 -20 -20 -20 -20 -20 -20 -20 -20 -20 -20 -18 -20 -1 -7 -20 -13 -16 -20 -20 -20 -6 -3 -12 19 -15
-20 -20 -20 -20 -20 -20 -20 -20 -20 -20 -20 -20 -20 -20 -17 10 18 13 21 24 14 9 -1 4 6 23 20 -12 -20 28 11 -14
-20 -20 -20 -20 -20 -20 -20 -20 -20 -20 -20 -20 -20 -20 -20 12 -3 24 27 26 20 21 10 37 30 -9 2 -20 25 23 -19 -20
-20 -20 -20 -20 -20 -20 -20 -20 -13 2 -20 -20 -20 -12 -15 -1 21 11 11 15 7 -20 -20 2 19 -15 -20 1 28 -16 -20 -20
-20 -20 -20 -20 -20 -20 -20 -20 -20 -6 -17 -20 -20 -20 -20 21 26 24 25 13 17 -20 -20 -7 21 39 25 21 -20 -20 -20 -17
-20 -20 -20 -20 -20 -20 -20 -20 -20 -18 -20 -20 -20 -18 1 10 18 20 22 16 6 -15 15 33 28 25 -8 -20 -20 -20 -20 -18
-20 -20 -20 -20 -20 -20 -20 -20 -20 -20 -20 -20 -20 -18 29 -11 -19 -9 -20 19 13 -20 17 -5 -2 7 -20 -20 -20 -20 -4 30
-20 -20 -20 -20 -20 -20 -20 -20 -20 -20 -20 -20 -20 -17 -15 -17 -20 21 -20 -20 -20 8 7 -2 13 13 -10 -19 -19 17 30 -3
-20 -20 -20 -20 -20 -20 -20 -20 -20 -2 2 -20 -20 -20 -20 -9 -20 -20 -20 -20 -20 -20 -8 -3 0 2 -20 -12 -14 24 -16 -20
-20 -20 -20 -20 -20 -20 -20 -20 -20 16 -20 -20 -20 -20 -20 -20 -20 -20 -20 -20 -20 -20 -0 -16 18 3 -20 -1 27 31 -9 -20
-20 -20 -20 -20 -20 -20 -20 -20 -20 -20 -20 -20 -20 -20 -20 -20 -20 -20 -20 -20 -10 -20 -1 -16 24 21 -13 38 5 11 -20 -19
-20 -20 -20 -20 -20 -20 -20 -20 -20 -20 -20 -20 -20 -20 -20 -20 -20 -20 -20 -20 -18 -16 4 13 -20 2 13 14 19 8 -0 -10
-20 -20 -20 -20 -20 -20 -20 -20 -20 -20 -20 -20 -20 -20 -20 -20 -20 -20 -20 -20 -20 -20 -20 -20 -20 -15 -2 23 18 10 -2 -20

GFSFLT1_prec_radar_033.txt.gz
Reflectivity
-20 -20 -20 -11 -5 1 1 -10 20 -20 -20 -20 -20 -20 -20 -20 -11 -20 -20 -20 -20 -20 -20 -20 -20 -20 -20 -20 -20 -20 -20 -20
-19 -20 -20 -20 -20 -20 -20 -20 -20 17 19 -20 -20 -20 -20 -20 -20 -20 -20 -20 -20 -20 -20 -20 -20 -20 -20 -20 -20 -20 -20 -20
-20 -20 -20 -20 -20 -20 -20 -20 -20 -20 -20 -20 -20 -20 -20 -20 -20 -19 -20 -20 -20 -20 -20 -20 -20 -20 -20 -20 -20 -20 -20 -20
-20 -20 -20 -20 -20 -20 -20 -20 -20 -20 -20 -20 -20 -20 -20 -20 -20 -20 -20 -20 -20 -20 -20 -20 -20 -20 -20 -20 -20 -20 -20 -20
-20 -20 -20 -20 -20 -20 -20 -20 -20 -20 -20 -20 -20 -20 -20 -20 -20 -20 -20 -20 -20 -20 -20 -20 -20 -20 -20 -20 -20 -20 -20 -20
-20 -20 -20 -20 -20 -20 -20 -20 -20 -20 -20 -20 -20 -20 -20 -20 -20 -20 -20 -20 -20 -20 -20 -20 -20 -20 -20 -20 -20 -20 -20 -20
-20 -20 -20 -20 -20 -20 -20 -20 -20 -20 -20 -20 -20 -20 -20 -20 -8 -20 -17 -8 -4 19 -9 3 4 23 9 -2 9 -18 4 29
-20 -20 -20 -20 -20 -20 -20 -20 -20 -20 -20 -20 -20 -20 -20 -20 -20 -8 -7 -20 -5 12 26 32 38 29 24 17 33 25 28 11
-20 -20 -20 -20 -20 -20 -20 -20 -20 -20 15 -9 -20 -20 -20 -20 -20 -18 20 -9 8 42 31 13 -10 -16 4 19 17 24 25 25
-20 -20 -20 -20 -20 -20 -20 -20 -20 -20 -20 -15 25 -17 -20 -20 -20 -20 -13 -2 14 23 5 -20 -20 -20 -17 21 26 33 14 23
-20 -20 -20 -20 -20 -20 -20 -20 -20 -20 -20 -17 25 -18 -20 -17 -20 -15 -14 -14 -20 -20 -20 -19 -20 -13 11 35 28 20 -8 -19
-20 -20 -20 -20 -20 -20 -20 -20 -20 -20 -20 -20 -20 -20 11 -16 -15 -20 -20 -20 -20 -20 -20 -20 -20 -15 13 13 -8 14 -19 -20
-20 -20 -20 -20 -20 -20 -20 -20 -20 -20 -20 -20 -20 29 -18 -13 30 -14 -12 23 -20 -20 -20 -20 -20 13 7 8 21 19 10 -20
-20 -20 -20 -20 -20 -20 -20 -20 -20 -20 -20 -20 -17 -18 29 16 2 18 22 -12 -9 24 14 -2 -13 18 21 0 10 -20 6 4
-20 -20 -20 -20 -20 -20 -20 -20 -20 -20 -20 -20 -20 -20 1 9 18 -9 -20 -20 -12 11 5 -7 15 13 6 19 16 -9 27 25
-20 -20 -20 -20 -20 -20 -20 -20 -20 -20 -20 -20 -17 -17 -20 -14 6 1 -20 -20 -20 -20 -20 -20 -8 15 -4 -13 9 19 11 5
-20 -20 -20 -20 -20 -20 -20 -20 -20 23 22 -20 -20 -20 -20 -20 -20 -20 -20 -20 -20 -20 -20 -20 -20 -20 15 17 -20 -20 -8 13
-20 -20 -20 -20 -20 -20 -9 8 -5 -20 -20 -20 -20 -20 -20 -20 -20 -20 -20 -20 -20 -20 -0 -16 -5 -16 -20 -20 -20 -20 -2 7
-20 -20 -20 -20 -20 -20 -20 -20 -20 -20 -20 -20 -20 -20 -20 -20 -20 -20 -20 -20 -20 -20 -20 -20 -20 -20 -20 -20 -10 -4 -4 -4

GFSFLT1_prec_radar_036.txt.gz
Reflectivity
-20 -20 -20 -20 -20 -20 -20 -20 -20 -20 -16 -13 -20 -20 -20 -17 -15 -5 -6 -20 -20 -20 -20 -20 -20 -20 -20 -20 -20 -20 -20 -20
-20 -20 -20 -20 -20 -0 -20 -18 -8 -17 -20 -20 13 -20 -20 -20 -20 -20 -20 14 -5 -20 -20 -20 -20 -20 -20 -20 -20 -20 -20 -20
-20 -20 -20 -20 -20 -20 -19 -20 -20 -20 -20 -20 -20 -20 -20 -20 -20 -20 28 35 -11 -20 -20 -20 -20 -20 -20 -20 -20 -20 -20 -20
-20 -20 -20 -20 -20 -20 -20 -20 -20 -20 -20 -20 -20 -20 -20 -20 -20 -20 -20 -1 -20 -20 -20 -20 -20 -20 -20 -20 -20 -20 -20 -20
-20 -20 -20 -20 -20 -20 -20 -20 -20 -20 -20 -20 -20 -20 -20 -20 -20 -20 -20 -20 -20 -10 -20 -20 -20 -20 -20 -20 -20 -20 -7 -20
-20 -20 -20 -20 -20 -20 -20 -20 -20 -20 -20 -20 2 -20 -20 -20 -20 -20 -20 -20 -20 28 -9 -20 -19 -20 -19 -7 -2 26 15 13
-20 -20 -20 -20 -20 -20 -20 -20 -20 -20 -20 -20 -20 10 -20 -20 -20 -20 -20 -20 -20 4 -19 -16 -17 5 26 32 36 29 35 20
-20 -20 -20 -20 -20 -20 -20 -20 -20 -20 -20 -20 -20 -20 -20 -20 -20 -18 -3 -20 -20 -20 -20 -17 15 26 31 23 14 27 26 21
-20 -20 -20 -20 -20 -20 -20 -20 -20 -20 -20 -20 -20 6 -20 -3 -4 32 6 28 -2 -20 -20 -20 -18 9 -1 -20 -20 -20 -14 30
-20 -13 -20 -20 -20 -20 -20 -20 -20 -20 -20 -20 -20 -20 -20 19 37 34 -18 25 -5 -20 -20 -20 -20 -20 -20 -7 -20 -17 17 6
-20 1 -20 -20 -20 -20 -20 -20 -18 -20 -20 -20 -20 -20 -19 -1 40 19 2 29 -2 -0 0 -20 -20 -20 -20 -20 -20 20 -6 30
-20 -20 -19 -17 -20 -6 32 24 34 -20 -20 -20 -9 15 8 33 -7 -16 25 2 15 23 -20 -20 -20 -20 -20 -20 -20 -19 24 -11
-20 -20 -20 -20 -20 -20 -20 -20 -20 -20 -20 36 13 -4 -2 -19 37 -7 -16 24 -5 -20 -2 -20 -3 -18 -16 -20 -6 -15 5 30
-20 -20 -20 -20 -20 -20 -20 -20 -20 -19 -20 -14 -7 -5 -20 8 -13 -18 -2 26 13 -9 -13 1 4 10 14 -1 -15 14 17 0
-20 -20 -20 -20 -20 -20 -20 -20 -5 -18 -20 -20 -20 -20 -11 -19 -15 20 4 1 -14 -13 -10 -9 -9 5 16 -6 7 6 28 12
-20 -20 -20 -20 -20 -20 -20 -20 3 -16 -17 -20 -20 -20 -20 -20 2 -20 0 -15 -15 -20 -13 -8 -10 -19 -20 -12 -20 -4 5 -7
-20 -20 -20 -20 -20 -20 -20 -20 -20 17 -20 -20 -20 22 -20 -20 -20 -20 -20 -20 -20 -20 -20 -20 -20 -20 10 -20 -5 -20 -19 -20
-20 -20 -20 -20 -20 -20 -20 -20 -20 -20 -20 -20 -20 -20 -20 -20 -20 -20 -20 -20 -20 -20 -20 -20 -20 -20 4 -7 -20 -20 -20 -20
-20 -20 -20 -20 -20 -20 -20 -20 -20 -20 -20 -20 -20 -20 -20 -20 -20 -20 -20 -20 -20 -20 -20 -20 -20 -20 -20 -20 -20 -20 -19 -11

GFSFLT1_prec_radar_039.txt.gz
Reflectivity
-20 -20 -20 -20 -20 -20 -20 -20 -20 -20 -20 -5 -15 -20 -20 -20 -20 -20 -20 -20 -14 -14 -20 -20 -20 -20 -20 -20 -20 -20 -20 -20
-20 -20 -20 -20 -20 -20 -20 -20 -20 -20 -20 -20 -20 -20 -20 -20 -20 -16 -15 -20 -20 -20 -20 -20 -20 -20 -20 -20 -20 -20 -20 -20
-20 -20 -20 -20 -20 -20 -20 -20 -20 -20 -20 -20 -20 -20 -20 -20 -20 -20 -20 -19 7 -20 -20 -20 -20 -20 -20 -20 -20 -20 -20 -20
-20 -20 -20 -20 -20 -20 -20 -20 -20 -20 -20 -20 -20 -20 -20 -20 -20 -20 -20 -20 -20 -20 -20 -20 -20 -20 -20 -20 -20 -20 -20 -20
-20 -20 -20 -20 -20 -20 -20 -20 -20 -20 -20 -20 -20 -20 -20 -20 -20 -20 -20 -20 -20 -20 -20 -20 -20 -20 -20 -20 -20 -10 4 -20
-20 -20 -20 -20 -20 -20 -20 -20 -20 -20 -20 -20 -20 -20 -20 -20 -20 -20 -20 -20 -20 -20 29 4 -20 -20 -19 -17 22 32 18 32
-20 -20 -20 -20 -20 -20 -20 -20 -20 -20 -20 -20 -20 -20 -20 -20 -20 -20 -20 5 -4 34 -16 15 26 22 -20 -4 2 28 2 -20
-20 -20 -20 -20 -20 -20 -20 -20 -20 -20 -20 -20 -20 -20 -20 -20 -20 -20 -20 -20 30 25 33 21 -16 -20 1 5 -20 -20 -20 -20
-20 -20 -20 -20 -20 -20 -20 -20 -20 -20 -20 -20 -20 -20 -20 -20 -20 -20 -11 27 34 29 -8 27 -20 -20 -18 -20 -20 -20 -20 -20
-20 -20 -20 -20 -20 -20 -20 -20 -20 -20 -20 -20 -20 -20 -20 -20 -20 -20 30 -4 19 18 30 9 -20 -18 7 -20 -20 -20 -20 -20
-20 -20 -20 -20 -20 -20 -20 -20 -20 -16 -15 -15 -20 -20 -20 -20 -20 7 -2 -6 12 35 29 30 28 2 -20 -20 -20 -20 13 -18
-20 -17 -20 -20 -20 -20 -20 -19 24 30 16 -1 2 -19 -20 -8 24 33 31 33 28 -2 31 12 -9 -20 -10 -20 3 13 -6 -17
-20 -20 -20 -20 -19 14 15 0 -19 6 30 -8 -19 21 32 49 33 42 46 25 12 -15 -18 4 18 -6 -3 7 -13 -1 2 -3
-20 -20 -20 -20 -20 -20 -20 -20 -14 27 2 25 31 33 28 28 12 34 -7 5 -20 -20 -20 -14 -1 -20 -20 -16 -4 -20 8 -7
-20 -20 -20 -20 -20 -20 -20 -20 7 -13 -3 17 4 -10 -20 -20 -20 -17 -14 -7 -14 11 6 -20 -1 -20 -9 -14 -20 -6 -20 19
-20 -20 -20 -20 -20 -20 -20 -20 0 -20 -20 -20 -20 -20 -20 -20 -4 15 -20 2 25 4 -20 -8 -2 8 7 14 -12 -18 -18 -18
-20 -20 -20 -20 -20 -20 -20 -20 -20 -20 -20 -20 -20 -20 -20 -2 -20 -20 11 -20 -20 -20 -13 8 13 3 20 6 -8 -20 -20 -14
-20 -20 -20 -20 -20 -20 -20 -20 -20 -20 -20 -20 -20 -20 -20 -20 -20 -20 -20 -20 -20 -20 -20 -20 -20 -20 -20 -1 -5 -16 -20 -20
-20 -20 -20 -20 -20 -20 -20 -20 -20 -20 -20 -20 -20 -20 -20 -20 -20 -20 -20 -20 -20 -20 -20 -20 -20 -20 -20 -20 -20 -20 -20 -20

GFSFLT1_prec_radar_042.txt.gz
Reflectivity
-20 -20 -20 -20 -20 -20 -20 -6 6 2 12 -0 -13 -18 -20 -14 -20 -20 -20 -20 -20 -20 -20 -20 -20 -20 -20 -20 -20 -20 -20 -20
-20 -20 -20 -20 -20 -20 -20 -15 -20 -13 -20 -20 -20 -20 -20 -20 -20 -20 -20 -20 -20 -20 -20 -20 -20 -20 -20 -20 -20 -20 -20 -20
-20 -20 -20 -20 -20 -20 -20 -20 -20 -20 -20 -20 -20 -20 -20 -20 -20 -20 -20 -20 -20 -20 -20 -20 -20 -20 -20 -20 -20 -20 -20 -20
-20 -20 -20 -20 -20 -20 -20 -20 -20 -20 -20 -20 -20 -20 -20 -20 -20 -20 -20 -20 -20 -20 -20 -20 -20 -20 -20 -20 -20 -20 -20 -20
-20 -20 -20 -20 -20 -20 -20 -20 -20 -20 -20 -20 -20 -20 -20 -20 -20 -20 -20 -20 -20 -20 -20 -20 -20 -20 -20 -20 -20 -20 -20 -3
-20 -20 -20 -20 -20 -20 -20 -20 -20 -20 -20 -20 -20 -20 -20 -20 -20 -20 -20 -20 -20 -20 -20 -20 -20 -17 24 13 10 -20 -20 -20
-20 -20 -20 -20 -20 -20 -20 -20 -20 -20 -20 -20 -20 -20 -20 -20 -20 -20 -20 -20 -20 -20 -20 -20 13 26 26 13 23 -20 -12 -20
-20 -20 -20 -20 -20 -20 -20 -20 -20 -20 -20 -20 -20 -20 -20 -20 -20 -20 -20 -20 -20 -20 -7 31 24 -7 29 15 -2 -18 -20 -20
-20 -20 -20 -20 -20 -20 -20 -20 -20 -20 -20 -20 -20 -20 -20 -20 -20 -20 -12 -20 -14 -20 29 25 26 22 11 26 3 16 -20 -20
-20 -20 -20 -20 -20 -20 -20 -20 -20 -20 -20 -20 -20 -20 -20 -20 -20 -20 -5 -20 -2 13 31 25 19 28 29 20 27 -20 -20 -20
-20 -20 -20 -20 -20 -20 -20 -20 -20 -20 -20 -20 -8 -20 -20 -20 -20 -20 27 -5 -4 26 37 27 20 16 17 13 14 -20 -20 -20
-20 -20 -20 -20 -20 -20 -20 -20 -20 20 3 18 13 24 25 2 -20 14 26 18 29 40 21 15 22 4 -1 -13 -20 -20 -5 17
-20 -20 -20 -20 -20 -20 -20 -19 7 -15 -17 27 23 26 30 27 29 38 30 42 39 39 18 23 24 4 -16 14 19 5 2 18
-20 -20 -20 -20 -20 -20 -20 -20 -20 13 -16 -11 28 30 40 19 30 29 5 18 42 17 14 10 13 16 14 12 14 17 14 -10
-20 -20 -20 -20 -20 -20 -20 -20 -20 -20 -20 -3 -7 6 2 2 -4 9 22 -15 -3 30 2 23 -2 11 12 1 -10 -18 -18 -20
-20 -20 -20 -20 -20 -20 -20 -20 -20 -20 -20 -20 -20 -20 18 -19 -17 -17 -20 -20 -1 15 21 24 11 -9 1 -19 -8 7 14 -18
-20 -20 -20 -20 -20 -20 -20 -20 -20 -20 -20 11 -20 -20 -20 -20 -20 -20 6 17 14 15 15 2 -13 10 19 16 3 -20 -17 -1
-20 -20 -20 -20 -20 -20 -20 -20 -20 -20 -20 -20 -1 -20 -20 -20 28 -17 -7 6 -2 -7 -5 11 12 12 13 -12 -11 -16 -12 -20
-20 -20 -20 -20 -20 -20 -20 -20 -20 -20 -18 -4 6 -20 5 4 -20 -20 -20 -20 -20 -20 -20 -20 -14 -15 1 -20 -20 -20 -20 -20

GFSFLT1_prec_radar_045.txt.gz
Reflectivity
-20 -20 -5 4 3 16 22 -4 15 23 16 15 16 8 24 -0 -2 -5 -3 -20 -20 -20 -20 -20 -20 -20 -20 -20 -20 -20 -20 -20
-20 -20 -7 -20 -18 7 14 -1 9 26 22 8 13 9 8 2 -9 -9 12 -20 -20 -20 -20 -20 -20 -20 -20 -20 -20 -20 -20 -20
-20 -20 -20 -20 -20 -20 -17 21 -20 -20 -5 -11 -1 11 -17 -20 -15 -4 -17 -20 -20 -20 -20 -20 -20 -20 -20 -20 -20 -20 -20 -20
-20 -20 -20 -20 -20 -20 -20 -18 9 -1 -14 -20 -20 -20 -20 -20 -20 -20 -20 -20 -20 -20 -20 -20 -20 -20 -20 -20 -20 -20 -20 -20
-20 -20 -20 -20 -20 -20 -20 -20 -20 -20 -20 -20 -20 -20 -20 -20 -20 -20 -20 -20 -20 -20 -20 -20 -20 -20 -20 -20 -20 -20 14 -20
-20 -20 -20 -20 -20 -20 -20 -20 -20 -20 -20 -20 -20 -20 -20 -20 -20 -20 -20 -20 -20 -20 -20 -20 -20 20 -20 -20 17 22 15 5
-20 -20 -20 -20 -20 -20 -20 -20 -20 -20 -20 -20 -20 -20 -20 -20 -20 -20 -20 -20 -20 -20 -20 -20 -20 6 -20 -12 22 23 15 20
-20 -20 -20 -20 -20 -20 -20 -20 -20 -20 -20 -20 -20 -20 -20 -20 -20 -20 -20 -20 -20 -20 -20 -20 -20 -20 27 5 18 28 21 19
-20 -20 -20 -20 -20 -20 -20 -20 -20 -20 -20 -20 -20 -20 -20 -20 -20 -20 -17 -15 -16 -20 -20 -20 -20 3 27 28 33 27 29 20
-20 -20 -20 -20 -20 -20 -20 -20 -20 -20 -20 -20 -20 -20 -20 -20 -20 -20 -20 -20 -5 -9 -19 -20 1 37 37 36 29 33 14 1
-20 -20 -20 -20 -20 -20 -15 -20 -20 -20 -20 -20 -20 -20 -20 -7 -19 -20 -20 -20 -20 22 24 21 22 41 33 26 29 2 6 0
-20 -20 -20 -20 -20 -20 -20 19 -18 -20 -13 11 5 -2 9 -1 -7 12 -1 -20 -20 25 23 28 16 35 31 22 9 8 -12 -20
-20 -20 -20 -20 -20 -20 -20 -20 -20 -20 23 -12 -2 18 28 29 38 28 21 35 38 36 31 44 31 20 16 -0 2 -12 -19 -20
-20 -20 -20 -20 -20 -20 -20 -20 -20 -20 -20 -20 19 21 22 10 10 11 14 -5 4 -15 1 20 18 8 6 -2 15 -17 -16 12
-20 -20 -20 -20 -20 -20 -20 -20 -20 -20 -20 -20 2 -17 -2 18 30 -18 -20 4 -19 -20 -17 -12 -12 -20 -19 21 13 14 14 19
-20 -20 -20 -20 -20 -20 -20 -20 -20 -20 -20 -20 -20 -20 -20 -16 -7 -19 -20 6 10 -16 -20 -20 -20 3 15 24 13 9 14 7
-20 -20 -20 -20 -20 -20 -20 -20 -20 -20 -20 -20 -20 -20 -20 -20 -20 -20 -20 -20 -13 27 -15 16 24 20 27 16 10 -8 -20 -12
-20 -20 -20 -20 -20 -20 -20 -20 -20 -20 -20 -20 -20 -20 21 -20 -20 -18 -20 3 7 7 2 -2 15 12 18 8 10 -20 3 -4
-20 -20 -20 -20 -20 -20 -20 -20 -20 -20 -20 -20 -20 -18 -20 -20 -20 -18 -1 26 -5 -15 6 8 9 5 -3 -10 13 -14 -20 -20

GFSFLT1_prec_radar_048.txt.gz
Reflectivity
-20 -20 -20 -20 -20 -14 22 -3 11 29 25 2 20 -0 -20 -1 11 -20 -20 0 2 -5 -5 5 -14 -20 -20 -20 -20 -20 -20 -20
-20 -20 -20 -20 -20 1 -3 13 -5 24 24 20 15 5 -12 -20 7 -20 -4 10 5 -17 4 27 -20 -20 -20 -20 -20 -20 -20 -20
-20 -20 -20 -20 -20 -20 -20 0 8 15 26 25 27 12 18 13 19 27 18 -8 10 -19 -11 26 -20 -20 -20 -20 -20 -20 -20 -20
-20 -20 -20 -20 -20 -20 -20 -20 -17 12 21 25 17 20 15 9 16 -3 -20 -20 -11 -20 7 -20 -20 -20 -20 -20 -20 -20 -20 -20
-20 -20 -20 -20 -20 -20 -20 -20 -20 -18 -13 -18 -20 -20 -13 -8 -10 -20 -20 -20 -20 -20 -20 -20 -20 -20 -20 -20 -20 -20 -20 -20
-20 -20 -20 -20 -20 -20 -20 -20 -20 -20 -20 -20 -20 -20 -20 -20 -20 -20 -20 -20 -20 -20 -20 -20 -20 -20 -20 -20 -20 -20 -20 -20
-20 -20 -20 -20 -20 -20 -20 -20 -20 -20 -20 -20 -20 -20 -20 -20 -20 -20 -20 -20 -20 -20 -20 -20 -20 -20 -20 -20 -20 -20 24 17
-20 -20 -20 -20 -20 -20 -20 -20 -20 -20 -20 -20 -20 -20 -20 -20 -20 -20 -20 -20 -20 -20 -20 -20 -20 -20 -20 -20 -20 21 13 18
-20 -20 -20 -20 -20 -20 -20 -20 -20 -20 -20 -20 -20 -20 -20 -20 -20 -20 -20 -20 -20 -20 -20 -20 -20 -20 -20 -20 -20 15 22 11
-20 -20 -20 -20 -20 -20 -20 -20 -20 -20 -20 -20 -20 -20 -20 -20 -20 -20 -20 -20 -20 -20 -20 -20 -20 -20 -20 -20 -20 26 25 30
-20 -20 -20 -20 -20 -20 -20 -20 -20 -20 -20 -20 -20 -20 -20 -20 -20 -20 -20 -20 -20 -20 -20 -20 -20 2 4 26 2 23 35 31
-20 -20 -20 -20 -20 -20 -20 -20 -20 -20 -20 -20 -20 -20 -20 -20 -6 2 22 15 -19 -20 -20 -20 -14 -5 31 36 42 23 34 27
-20 -20 -20 -20 -20 -20 -20 -20 -20 -20 -20 -20 1 12 5 -4 -18 -19 18 -11 -19 3 16 16 31 22 21 24 34 8 18 28
-20 -20 -20 -20 -20 -20 -20 -20 -20 -20 -20 -20 -20 -20 -12 -14 -18 -20 -16 -12 -12 30 14 26 13 -20 -20 -11 -11 -10 -11 -20
-20 -20 -20 -20 -20 -20 -20 -20 -20 -20 -20 -20 -20 -20 -20 -20 -7 -19 -20 -12 -20 -2 14 23 22 13 -15 -20 -20 -19 -20 7
-20 -20 -20 -20 -20 -20 -20 -20 -20 -20 -20 -20 -20 -20 -20 -20 -20 17 -5 -6 -5 27 -8 -8 -19 -20 -1 -20 -20 -19 6 6
-20 -20 -20 -20 -20 -20 -20 -20 -20 -20 -20 -20 -20 -20 -20 -20 -20 16 -20 22 -20 25 31 -20 -20 26 -3 18 -5 20 1 17
-20 -20 -20 -20 -20 -20 -20 -20 -20 -20 -20 -20 -20 -20 -20 -20 -20 -20 -19 -20 25 -20 6 8 6 28 28 -0 23 10 20 17
-20 -20 -20 -20 -20 -20 -20 -20 -20 -20 -20 -20 -20 -20 -20 -20 -20 -20 -20 -14 23 -15 -16 -7 25 16 21 22 19 3 -7 -2

GFSFLT1_prec_radar_051.txt.gz
Reflectivity
-20 -16 -17 -13 -18 -0 9 33 22 5 24 31 27 25 23 29 17 -16 2 -18 -20 -20 -20 -20 -20 -20 -20 -20 -20 -20 -20 -20
-20 -20 -20 -16 -20 -20 -6 27 18 26 24 23 20 12 8 17 11 -5 -6 -15 -20 -20 -20 -20 -20 -20 -14 -19 -20 -20 -20 -20
-20 -20 -20 -20 -20 -20 -20 -19 19 20 28 28 14 11 17 23 -18 -19 -20 -20 -20 -20 -20 -20 -20 -20 -11 -20 -20 -20 -20 -20
-20 -20 -20 -20 -20 -20 -20 -20 -2 12 -9 21 23 22 21 22 0 -20 -16 -19 -18 -20 -20 -20 -20 -12 -20 -20 -20 -20 -20 -20
-20 -20 -20 -20 -20 -20 -20 2 -19 10 -7 22 9 -3 -19 -15 -4 8 -20 -20 -20 -13 -19 -20 -20 -6 -20 11 -20 -20 -20 -20
-20 -20 -20 -20 -20 -20 -20 -20 -20 -20 -8 -7 -3 -7 -20 -20 -20 -14 6 5 -20 -20 -20 -20 -20 -20 -20 -20 -20 -20 -20 -20
-20 -20 -20 -20 -20 -20 -20 -20 -20 -20 -20 -20 -20 -20 -20 -20 -20 -20 -8 -11 -20 -20 -20 -20 -20 -20 -20 -20 -20 -18 -20 -0
-20 -20 -20 -20 -20 -20 -20 -20 -20 -20 -20 -20 -20 -20 -20 -20 -20 -20 -20 -20 -20 -20 -20 -20 -20 -20 -20 -20 -20 -20 6 -20
-20 -20 -20 -20 -20 -20 -20 -20 -20 -20 -20 -20 -20 -20 -20 -20 -20 -20 -20 -20 -20 -20 -20 -20 -20 -20 -20 -20 -20 -20 -20 -20
-20 -20 -20 -20 -20 -20 -20 -20 -20 -20 -20 -20 -20 -20 -20 -20 -20 -20 -20 -20 -20 -20 -20 -20 -20 -20 -20 -20 -20 -20 -20 -20
-20 -20 -20 -20 -20 -20 -20 -20 -20 -20 -20 -20 -20 -20 -20 -20 -20 -20 -20 -20 -20 -20 -20 -20 -20 -20 -20 -20 -20 -20 -20 -16
-20 -20 -20 -20 -20 -20 -20 -20 -20 -20 -20 -20 -20 -20 -20 -20 -20 -20 -20 -16 -16 0 1 -20 -20 -20 -20 -20 -20 -20 -20 1
-20 -20 -20 -20 -20 -20 -20 -20 -20 -20 -20 -20 -20 -20 -20 -20 -20 -20 -20 -20 -20 13 3 -17 8 -20 -20 -20 -5 2 7 36
-20 -20 -20 -20 -20 -20 -20 -20 -20 -20 -20 -20 -20 -11 -20 -14 -20 -20 -20 -20 -20 -20 -20 -20 -18 -16 -5 11 -17 -20 -3 36
-20 -20 -20 -20 -20 -20 -20 -20 -20 -20 -20 -20 -20 -20 -20 -20 -13 -20 -20 -20 -20 -20 -20 -20 -20 -20 -7 -2 -19 -17 23 -20
-20 -20 -20 -20 -20 -20 -20 -20 -20 -20 -20 -20 -20 -20 -20 -20 -20 -20 -20 -20 -20 -20 -20 -8 -20 -20 -16 -18 -20 -20 -20 -20
-20 -20 -20 -20 -20 -20 -20 -20 -20 -20 -20 -20 -20 -20 -20 -20 -20 -20 -20 -20 -20 -20 9 -20 10 3 -3 -20 -13 8 -2 -20
-20 -20 -20 -20 -20 -20 -20 -20 -20 -20 -20 -20 -20 -20 -20 -20 -20 -20 -20 -20 -18 4 3 -20 15 8 4 -1 18 10 3 25
-20 -20 -20 -20 -20 -20 -20 -20 -20 -20 -20 -20 -20 -20 -20 -20 -20 -20 -10 1 -10 -3 -16 -12 -20 -11 15 15 14 9 8 8

GFSFLT1_prec_radar_054.txt.gz
Reflectivity
-20 -20 -20 -20 -20 8 -0 -2 8 7 11 15 25 28 26 29 21 27 19 23 25 9 -10 -15 -20 -20 -20 -20 -20 -20 -20 -20
-20 -20 -20 -20 0 5 2 0 7 2 11 20 15 11 13 14 25 30 14 -2 4 2 -13 -20 -20 -20 -20 -20 -20 -20 -20 -20
-20 -20 -20 -9 2 3 6 -5 11 11 -3 12 8 -4 11 14 19 19 11 8 3 -11 -11 -17 -20 -20 -20 -20 -20 -20 -20 -20
-20 -20 -20 -18 -7 6 0 9 -8 -7 22 16 17 21 21 18 1 -5 14 18 5 -20 -20 -20 -20 -20 -20 -20 -20 -20 -20 -5
-20 -20 -20 -20 -20 -8 3 3 -13 -1 3 10 12 19 28 6 15 -3 13 -15 -19 -15 -20 -20 -20 -20 -20 -20 -20 -20 -20 -20
-20 -20 -20 -20 -20 -20 0 6 9 -4 3 -14 -9 15 12 20 7 15 -12 -18 -13 -20 -20 -20 -20 -20 -20 -20 -20 -20 -20 26
-20 -20 -20 -20 -20 -20 -20 -1 9 -10 -20 -20 -20 -5 -5 -15 4 10 7 -12 -20 -20 -20 -20 17 31 -20 -3 -2 -20 -20 -20
-20 -20 -20 -20 -20 -20 -20 -20 -15 6 -6 -18 -20 -20 -20 -20 -20 -20 -20 -19 -18 -5 -20 -20 -20 -20 -20 -20 30 -2 -20 -10
-20 -20 -20 -20 -20 -20 -20 -20 -20 -17 -7 -19 3 2 -20 -20 -20 -20 -20 -20 -20 -20 -20 -20 -20 -20 -20 -20 -20 -20 -20 -20
-20 -20 -20 -20 -20 -20 -20 -20 -20 -20 -20 2 1 -5 -20 -20 -20 -20 -20 -20 -20 -20 -20 -20 -20 -20 -20 -20 -20 -20 -20 -20
-20 -20 -20 -20 -20 -20 -20 -20 -20 -20 -20 -20 -20 -20 -20 -20 -20 -20 -20 -20 -20 -20 -20 -20 -14 -20 -20 -20 -20 -20 -20 -20
-20 -20 -20 -20 -20 -20 -20 -20 -20 -20 -20 -20 -20 -20 -20 -20 -20 -20 -20 -20 -20 -20 -20 -20 -20 -20 -20 -20 -20 -20 -20 -20
-20 -20 -20 -20 -20 -20 -20 -20 -20 -20 -20 -20 -20 -20 -20 -20 -20 -20 -20 -20 -20 -20 -20 -20 -20 -20 -20 -20 -20 -20 -20 -20
-20 -20 -20 -20 -20 -20 -20 -20 -20 -20 -20 -20 -20 -20 -20 -20 -20 -20 -20 -20 -20 -20 -20 -20 -20 -20 -20 -20 -20 2 7 -20
-20 -20 -20 -20 -20 -20 -20 -20 -20 -20 -20 -20 -20 -20 -20 -20 7 -20 -20 -20 -20 -20 -20 -20 -20 -20 -20 -20 -20 -20 2 -20
-20 -20 -20 -20 -20 -20 -20 -20 -20 -20 -20 -20 -20 -20 -20 -20 -20 16 -20 -20 -20 -20 -20 -20 -20 -20 -20 -20 -20 -20 -12 -20
-20 -20 -20 -20 -20 -20 -20 -20 -20 -20 -20 -20 -20 -20 -20 -20 -20 -20 -20 -20 -20 -20 -20 -20 -20 -20 -20 -20 -7 14 -1 -20
-20 -20 -20 -20 -20 -20 -20 -20 -20 -20 -20 -20 -20 -20 -20 -20 -20 -20 -20 -20 -20 -20 -20 -20 -14 -17 5 11 15 -1 -11 14
-20 -20 -20 -20 -20 -20 -20 -20 -20 -20 -20 -20 -20 -20 -20 -20 -20 -20 -20 -20 -20 -20 -18 -8 -8 9 16 21 17 5 -14 -11

GFSFLT1_prec_radar_057.txt.gz
Reflectivity
-20 -20 -20 -20 4 -12 -7 -14 -1 7 2 20 29 28 31 29 29 8 9 17 25 12 12 17 5 6 -18 -20 -20 -20 -20 -20
-20 -20 -20 -20 -13 10 11 -9 2 10 6 12 22 26 30 18 27 6 19 17 14 1 2 25 13 11 -18 -20 -20 -20 -20 -20
-20 -20 -20 -20 -16 8 11 -20 -0 -1 3 7 3 11 24 22 20 20 24 16 16 7 13 12 24 12 -9 -20 -20 -20 -20 -20
-20 -20 -20 -20 -20 2 -1 -20 -1 -1 5 17 9 0 20 18 20 17 18 18 -15 -19 12 18 17 -16 -20 -20 -20 -20 -20 -20
-20 -20 -20 -20 -20 -20 2 -3 -20 8 1 -4 -2 1 11 -6 8 -1 5 -4 -20 12 5 -19 -19 -20 -20 -20 -20 -20 -20 -20
-20 -20 -20 -20 -20 -20 -0 4 -12 -14 5 -3 7 6 -20 -10 -16 5 5 -20 -17 -17 -3 -20 -20 -20 -20 -20 -20 -20 -20 -20
-20 -20 -20 -20 -20 -20 -6 9 -16 -20 1 4 -1 -20 -20 -20 -20 3 -7 -20 1 25 7 -20 -20 -20 -20 -20 11 -13 -20 -9
-20 -20 -20 -20 -20 -20 -20 -15 9 -17 -20 -20 -6 4 -20 -19 -20 -20 -19 -20 -20 7 -20 19 -20 -20 -20 -20 -20 -18 -3 -20
-20 -20 -20 -20 -20 -20 -20 -20 -20 -10 1 -20 5 1 -7 -3 -20 -20 -20 -20 -20 -20 -20 -20 -20 -20 -20 -20 -15 -1 -20 -3
-20 -20 -20 -20 -20 -20 -20 -20 -20 -20 6 1 -20 -20 -20 -20 -20 -20 -20 -20 -20 -20 -20 -20 -20 -20 -20 10 -15 14 -20 -16
-20 -20 -20 -20 -20 -20 -20 -20 -20 -20 -20 -3 2 -17 -20 -20 -20 -20 -20 -20 -20 -20 -20 -20 -20 -20 -20 -20 -20 -20 -5 -20
-20 -20 -20 -20 -20 -20 -20 -20 -20 -20 -20 -20 -14 1 -2 -16 2 -4 -20 -20 -20 -20 -20 -20 -20 -20 -20 -20 -20 -20 -20 -20
-20 -20 -20 -20 -20 -20 -20 -20 -20 -20 -20 -20 -20 -20 -19 -19 -20 -5 -17 -20 -20 -20 -20 -20 -20 -20 -20 -20 -20 -20 -20 -20
-20 -20 -20 -20 -20 -20 -20 -20 -20 -20 -20 -20 -20 -20 -20 -20 -20 -20 -18 -20 -20 -20 -20 -20 -20 -20 -20 -20 -20 -11 -4 -16
-20 -20 -20 -20 -20 -20 -20 -20 -20 -20 -20 -20 -20 -20 -20 -20 -20 -20 -20 -20 -20 -20 -20 -20 -20 -20 -20 -20 -20 -20 -20 -16
-20 -20 -20 -20 -20 -20 -20 -20 -20 -20 -20 -20 -20 -20 -20 -20 -20 -20 -20 -20 -20 -20 -20 -20 -20 -20 -20 -20 -20 -20 -20 -20
-20 -20 -20 -20 -20 -20 -20 -20 -20 -20 -20 -20 -20 -20 -20 -20 -20 -20 -20 -20 -20 -20 -20 -20 -20 -20 -20 -20 -20 -20 -20 -20
-16 -20 -20 -20 -20 -20 -20 -20 -20 -20 -20 -20 -20 -20 -20 -20 -20 -20 -20 -20 -20 -20 -20 -20 -20 -20 -20 -20 -14 -14 1 9
-20 -20 -20 -20 -20 -20 -20 -20 -20 -20 -20 -20 -20 -20 -20 -20 -20 -20 -20 -20 -20 -20 -20 -20 -20 -20 -20 -20 4 -2 2 -9

GFSFLT1_prec_radar_060.txt.gz
Reflectivity
-20 -20 -20 -20 -20 -18 -20 -12 -15 -18 -15 -20 -20 4 27 17 26 16 18 15 -20 31 18 30 19 19 -2 -20 -20 -20 -20 -20
-20 -20 -20 -20 -20 -6 -20 -2 -3 -15 -20 -1 -3 18 28 30 29 16 16 4 -20 11 21 18 -4 14 2 1 -20 -8 -20 -20
-20 -20 -20 -20 -20 -17 -2 -19 -9 -16 -20 -0 7 -4 12 24 17 5 -3 -12 6 18 22 -2 19 6 -20 1 24 16 -11 -20
-20 -20 -20 -20 -20 -20 4 -20 -16 -19 -20 2 6 9 5 18 18 23 1 3 12 9 -12 6 -4 -3 13 27 24 6 -19 -20
-20 -20 -20 -20 -20 -20 1 1 -20 -20 -20 -2 -19 -18 -17 -20 -3 14 15 1 -19 -20 -18 -19 -20 -20 -11 25 -0 -20 -20 -20
-20 -20 -20 -20 -20 -20 -20 10 -20 -20 -19 -15 -2 -6 -20 -20 -20 0 3 14 -2 -20 -20 -20 -20 -20 -18 19 -20 -20 -20 -20
-20 -20 -20 -20 -20 -20 -20 -7 11 -17 -20 -20 -20 -18 -20 -20 -16 -9 -4 -12 -18 -20 -7 -19 -20 -20 -20 7 -20 -20 -20 -20
-20 -20 -20 -20 -20 -20 -20 -8 9 16 -20 -20 -20 -7 -20 -20 -20 -20 -20 -20 -20 -20 -20 -20 -20 -20 -20 -20 -20 -20 -20 -20
-20 -20 -20 -20 -20 -20 -20 -20 -13 9 -13 -20 -20 -20 -20 -20 -20 -20 -20 -20 -20 -20 -20 -20 -20 -20 -20 -20 -20 20 -20 -20
-20 -20 -20 -20 -20 -20 -20 -20 -20 -3 -5 -20 -20 -5 -20 -20 -20 -20 -20 -20 -20 -20 -20 -20 -18 -19 -20 -20 -20 -20 26 -20
-20 -20 -20 -20 -20 -20 -20 -20 -20 -20 -20 -15 -20 -20 -20 -20 -20 -20 -20 -20 -20 -20 -20 -20 -20 -2 23 -20 2 27 -8 -20
-20 -7 -20 -20 -20 -20 -20 -20 -20 -20 -20 -20 -15 -8 -17 -12 -20 -20 -20 -20 -20 -20 -20 -20 -20 -8 -9 -20 -20 -20 -20 -20
-20 -20 -20 -20 -20 -20 -20 -20 -20 -20 -20 -20 -20 -6 10 -20 -20 -20 -20 -20 -20 -20 -20 -20 -20 -20 -20 -20 -20 -20 -20 -20
-20 -9 -19 -20 -20 -20 -20 -20 -20 -20 -20 -20 -20 -20 -20 -20 -20 -20 -20 -20 -20 -20 -20 -20 -20 -20 -20 -20 -20 -20 -20 -20
-20 -20 -20 -20 -20 -20 -20 -20 -19 -0 -20 -20 -20 -20 -20 -20 -20 -20 -20 -20 -20 -20 -20 -20 -20 -20 -20 -20 -20 -20 -20 -20
-20 -20 -20 -20 -20 -20 -20 -20 -20 -20 30 -20 -20 -20 -20 -20 -20 -20 -20 -20 -20 -20 -20 -20 -20 -20 -20 -20 -20 -20 -20 -20
-20 -20 -20 -20 -20 -20 -20 -20 -20 -20 -20 -20 -20 -20 -20 -20 -20 -20 -20 -20 -20 -20 -20 -20 -20 -20 -20 -20 -20 -20 -20 -20
-20 -20 -20 -20 -20 -20 -20 -20 -20 -20 -20 -20 -20 -20 -20 -20 -20 -20 -20 -20 -20 -20 -20 -20 -20 -19 -20 -20 -20 -20 -20 -20
-20 -20 -20 -20 -20 -20 -20 -20 -20 -20 -20 -20 -20 -20 -20 -20 -20 -20 -20 -20 -20 -20 -20 -20 -7 -20 -20 -13 -7 -13 -20 -20

GFSFLT1_prec_radar_063.txt.gz
Reflectivity
-20 -20 -20 -20 -20 -20 -20 10 -11 16 -20 -20 -20 2 9 20 -4 7 -3 -15 3 -18 -1 -20 -20 -20 -20 -10 -6 17 -5 -20
-20 -20 -20 -20 -20 -20 -20 -6 9 4 2 2 -2 4 25 20 19 23 18 -17 -14 -17 7 3 -20 15 -20 -20 -4 1 -5 -20
-20 -20 -20 -20 -20 -20 -20 6 -2 -19 5 2 2 -18 -12 -7 6 28 10 11 -20 -20 -11 8 -9 10 11 -14 -20 4 26 12
-20 -20 -20 -20 -20 -20 -20 -20 -1 -4 -6 -16 3 1 15 21 6 26 14 -10 -7 -10 -9 22 20 -10 28 18 -2 -19 11 24
-20 -20 -20 -20 -20 -20 -20 -0 2 -20 -4 -19 -11 -3 2 7 10 11 17 20 -17 -11 20 14 27 25 -15 10 -19 -18 26 13
-20 -20 -20 -20 -20 -20 -20 -16 2 -20 -20 11 14 -20 -20 -20 -20 4 8 -18 -18 -3 -10 3 0 -9 -19 -20 -20 -17 19 12
-20 -20 -20 -20 -20 -20 -20 -20 -5 -2 -20 -20 -20 -20 -20 -20 -20 -10 -20 -20 -15 7 1 -20 -20 -20 -20 -20 -20 -20 19 -19
-20 -20 -20 -20 -20 -20 -20 -20 -19 3 -20 -20 -20 -20 -20 -20 -20 -20 -20 -20 -20 -20 -20 -20 -20 -20 -20 -20 -15 -20 16 -20
-20 -20 -20 -20 -20 -20 -20 -20 -20 -20 -10 -14 -20 -20 -20 -20 -20 -20 -20 -20 -20 -20 -20 -20 -20 -20 -20 -20 -20 -20 -18 27
-20 -20 -20 -20 -20 -20 -20 -20 -20 -20 -18 -9 -20 -20 -20 -20 -20 -20 -20 -20 -20 -20 -20 -20 -20 -20 -20 -20 -20 -20 -20 -19
-20 -20 -20 -20 -20 -20 -20 -20 -20 -20 -20 -3 -20 -20 -4 -20 -20 -20 -20 -20 -20 -20 -20 -20 -20 -20 -20 -20 -16 -3 -20 -20
-20 -20 -20 -20 -20 -20 -20 -20 -20 -20 -20 -20 -6 -20 -5 3 -19 -20 -20 -20 -20 -20 -20 -20 -20 -20 -20 -20 -20 -20 -20 -20
-20 -20 -11 -20 -20 -20 -20 -20 -20 -20 -20 -20 -20 -6 -8 -20 -20 -20 -20 -20 -20 -20 -20 -20 -20 -20 -20 -20 -20 -20 -20 -20
-20 -20 -20 9 18 14 -20 -20 -20 -20 -20 -20 -20 -20 -20 -20 -20 -20 -20 -20 -20 -20 -20 -20 -20 -20 -20 -20 -20 -20 -20 -20
-20 -20 -20 -20 -20 3 4 -14 -20 -20 -20 -20 -20 -20 -20 -20 -20 5 0 -20 -20 -20 -20 -20 -20 -20 -20 -20 -20 -20 -20 -20
-20 -20 -20 -20 -20 3 -20 -9 -11 26 -18 -20 -20 -20 -20 -20 -20 -20 -5 -15 -20 -20 -20 -20 -20 -20 -20 -20 -20 -20 -20 -20
-20 -14 -20 -20 -20 -20 -20 -20 -20 -20 -17 26 30 -20 -20 -20 -20 -20 -20 -20 -20 -20 -20 -20 -20 -20 -20 -20 -20 -20 -20 -20
-20 -20 -20 -20 -20 -20 -20 -20 -20 -20 -20 -17 -6 -20 -20 -20 -20 -20 -20 -20 -20 -20 -20 -20 -20 -20 -7 -4 -20 -20 -20 -20
-20 -20 -20 -20 -20 -20 -20 -20 -20 -20 -20 -20 -20 -20 -20 -20 -20 -20 -20 -20 -20 -20 -20 -20 -17 -20 5 9 -5 -20 -20 -20

GFSFLT1_prec_radar_069.txt.gz
Reflectivity
-20 -20 -20 -20 -20 -20 -20 13 -19 -20 -6 -17 -13 3 -20 -8 3 34 34 25 18 -5 9 -11 -14 -15 -18 -15 -20 -13 2 -2
-20 -20 -20 -20 -20 -20 -20 5 1 -1 -20 -16 11 6 -20 2 -20 -5 19 33 28 7 2 -3 -11 -20 -20 -20 -13 -18 -20 -20
-20 -20 -20 -20 -20 -20 -20 -19 4 -16 -15 -20 -9 -19 -20 -20 -20 -20 -18 -6 17 21 11 19 8 -14 -19 -18 -20 -20 -20 -20
-20 -20 -20 -20 -20 -20 -20 -20 -20 11 -6 -7 -20 20 -20 -20 -20 4 -14 -17 11 27 6 19 13 2 7 -16 -14 -20 -20 -20
-20 -20 -20 -20 -20 -20 -20 -20 -20 -20 -20 -9 -14 -20 -14 -8 -18 11 28 12 -9 26 18 18 12 5 21 21 -13 -20 -18 -20
-20 -20 -20 -20 -20 -20 -20 -20 -20 -20 -20 -13 6 10 3 10 11 1 -3 31 1 18 18 26 23 10 3 16 9 -18 -19 -20
-20 -20 -20 -20 -20 -20 -20 -20 -20 -20 -20 -20 -20 -20 -15 -4 -3 3 5 25 15 25 28 23 18 10 13 19 21 5 -5 -15
-20 -20 -20 -20 -20 -20 -20 -20 -20 -20 -20 -20 -20 -20 -20 11 3 7 -14 -5 14 13 28 -1 10 14 10 25 31 26 21 11
-20 -20 -20 -20 -20 -20 -20 -20 -20 -20 -20 -20 -20 -20 -20 -19 16 12 -3 -20 1 14 20 24 28 27 19 20 26 30 33 26
-20 -20 -20 -20 -20 -20 -20 -20 -20 -20 -20 -20 -20 -20 -20 -20 -20 8 15 -20 -20 -20 -20 1 16 24 28 27 22 27 32 28
-20 -20 -20 -20 -20 -20 -20 -20 -20 -20 -20 -20 -20 -20 -20 -20 -20 -20 -20 -20 -20 -20 -20 -20 -20 3 15 20 21 19 22 18
-20 -20 -20 -20 -20 -20 -20 -20 -20 -6 -20 -20 -20 -20 -20 -20 -20 -20 -20 -20 -20 -20 -20 -20 -20 -19 -20 -17 -14 -16 -20 -20
-20 -20 -20 15 1 -18 -20 -20 -20 -20 -20 -20 -20 -20 -20 -20 -20 -20 -20 -20 -20 -20 -20 -20 -20 -19 -3 -16 -20 -20 -20 -20
-20 -20 -20 -14 25 27 -20 0 7 12 -8 -20 -20 -20 -20 -20 -20 -20 -20 -20 -20 -20 -20 -20 -20 -20 -20 -20 -20 -20 -12 -20
21 20 20 24 25 29 28 6 -20 -19 -8 -5 -12 -17 -20 -16 -20 -20 -20 -20 -20 -20 -20 -20 -20 -20 -20 -20 -20 -20 -20 -20
-9 7 16 13 15 17 17 -20 -20 -20 -20 -20 -20 -20 -19 15 25 -20 -20 -20 -20 -20 -20 -20 -20 -20 -20 -20 -20 -20 -20 -20
-20 -20 -20 -20 -20 -20 -20 -20 -20 -20 -20 -20 -20 -20 -8 10 12 -14 -6 11 27 28 -19 -20 -20 -20 2 6 -20 -20 -20 -20
18 -6 18 3 -20 -20 -20 -20 -20 -20 -20 -20 -20 -20 -7 -4 11 8 15 19 1 2 -3 -5 -20 -19 -20 -20 10 -7 -6 -20
-6 -0 26 2 -20 -20 -20 -20 -20 -20 -20 -20 -20 -20 -20 -20 -20 -20 13 11 12 17 15 11 16 -6 2 -7 24 26 18 13

GFSFLT1_prec_radar_072.txt.gz
Reflectivity
-12 -20 -20 -20 -20 -20 -20 9 5 -15 -20 -6 -20 -6 7 7 -18 12 34 30 13 30 31 20 -20 -20 -20 -20 -20 -20 -20 -20
-14 -20 -20 -20 -20 -20 -20 -17 -18 -4 -16 9 -20 -20 8 -16 3 25 38 30 34 28 3 -19 -20 -20 -20 -20 -20 -20 -20 -20
-20 -20 -20 -20 -20 -20 -20 -20 -19 -19 -20 6 -18 -20 3 -20 5 22 31 33 34 29 3 -19 -20 -20 -20 -19 -20 -17 -20 -5
-20 -20 -20 -20 -20 -20 -20 -20 -20 -18 -13 19 3 -20 -20 -20 17 7 24 27 30 31 30 16 -20 -15 -18 -20 -9 -18 -13 1
-20 -20 -20 -20 -20 -20 -20 -10 7 -13 6 -6 -20 -20 -20 -6 -16 -7 17 -11 11 24 28 30 18 -13 7 -18 6 -20 -20 -20
-20 -20 -20 -20 -20 -20 -20 -18 -5 -20 -3 5 -15 -0 -20 -7 -13 -20 6 21 19 17 24 26 22 22 15 12 6 -20 -20 -20
-20 -20 -20 -20 -20 -20 -20 -20 -2 -12 -20 -8 1 12 4 -20 -18 -19 -7 15 30 17 -2 29 24 -5 13 8 -6 -10 -5 -20
-20 -20 -20 -20 -20 -20 -20 -20 -17 -2 -20 -20 5 -5 4 -0 -15 -20 4 4 19 15 13 18 25 12 22 24 11 10 8 6
-20 -20 -20 -20 -20 -20 -20 -20 -20 -15 -20 -20 -0 -8 -20 -20 9 -14 -20 -12 -1 0 3 12 26 25 21 24 21 15 25 17
-20 -20 -20 -20 -20 -20 -20 -20 -20 -20 -20 -20 -20 -20 -20 -20 -20 -20 -2 9 -16 -20 -15 31 23 23 17 17 25 26 22 11
-20 -20 -20 -20 -20 -15 -20 -20 -20 -20 -20 -20 -20 -20 -20 -20 -20 1 9 -15 -19 -15 5 -13 -13 10 24 22 16 20 21 24
-19 -13 -20 -14 -1 12 11 7 -20 -20 -20 -20 -20 -20 -20 -20 -20 -20 -10 11 -7 -20 -20 -20 -20 -20 -15 20 25 17 13 18
-3 5 -20 -19 -7 21 -5 14 9 -20 -20 2 -20 -20 -20 -20 -20 -20 -20 -20 -20 -20 -20 -20 -20 -20 -20 -20 -20 16 -9 -2
3 12 20 13 5 8 15 10 23 -17 -20 3 8 -8 -18 -20 -20 -20 -20 -20 -20 -20 -20 -20 -20 -20 -20 -20 -20 -20 -20 -20
-8 -16 11 -5 -11 21 21 20 22 20 5 -20 -20 -20 -20 -17 -4 -19 -20 -20 -20 -20 -20 -20 -20 -20 -20 -20 -20 -20 -20 -20
18 16 16 23 17 19 4 10 15 17 -10 -20 -9 1 -17 -20 -20 -15 5 -10 -0 2 -9 -20 -20 -20 -20 -20 -20 -20 -20 -20
-1 -17 -20 14 14 -4 5 26 24 15 -0 -2 0 7 11 15 -2 -1 1 -3 8 14 26 8 18 7 11 -14 -20 -20 -20 -20
-1 3 -11 5 7 -0 -6 -3 7 -20 -20 -20 -20 -20 -17 1 12 12 9 17 17 12 16 20 18 15 25 19 20 14 18 7
26 -3 -7 -0 -20 -18 -13 -20 -20 -20 -20 -20 -20 -20 -20 -20 -20 -20 -20 -20 -13 4 16 13 18 23 20 14 15 10 -2 -15

GFSFLT1_prec_radar_075.txt.gz
Reflectivity
-20 -20 -20 -20 -20 -20 -20 -20 -20 -17 -18 8 2 -7 -15 12 5 -5 20 32 37 5 -1 6 29 24 -2 -20 -20 -20 -20 -20
-20 -20 -20 -20 -20 -20 -20 -20 -20 3 11 -5 -8 -5 -20 -17 -7 12 -1 19 33 32 0 19 22 23 15 -20 -20 -20 -20 -20
-20 -20 -20 -20 -20 -20 -20 -20 -12 -7 -20 -19 4 -19 -20 -12 -20 3 3 20 35 21 21 25 26 23 -3 -20 -20 -20 -20 -20
-20 -20 -20 -20 -20 -20 -20 -20 -14 -13 2 -20 3 -15 -20 -0 -17 8 16 32 33 35 31 34 27 11 -20 -20 -20 -20 -20 -20
-20 -20 -20 -20 -20 -20 -20 -20 -20 -20 -20 8 -3 1 -18 14 -20 18 21 19 32 36 31 23 12 -6 -20 -20 -20 -20 -20 -20
-20 -20 -20 -20 -20 -20 -20 -20 -20 -20 -20 -17 -19 -4 5 -16 13 -3 2 20 14 28 29 26 18 6 8 -16 -14 -20 -20 -20
-20 -20 -20 -20 -20 -20 -20 -20 -20 -6 -20 -20 -14 -5 -12 -20 -7 6 -9 13 27 28 -1 12 16 0 -16 -10 3 -19 -20 -18
-20 -20 -20 -20 -20 -20 8 -20 -20 -18 -20 -18 -11 7 9 -6 -18 -15 -20 -20 8 22 27 20 19 26 23 1 -5 -3 -20 -20
-4 -18 -20 -20 -20 -20 -19 -20 -20 -11 -20 -16 -8 -19 5 10 4 10 -9 -10 3 24 23 16 14 29 27 24 10 9 15 -18
4 -11 -20 -20 -20 10 -3 -20 -20 -7 -19 -20 -20 -20 -20 -20 -19 4 -20 1 -4 -20 18 20 19 7 23 24 20 21 12 14
-17 -4 -20 -20 -20 0 -4 -20 -19 -18 9 -1 -20 -20 -20 -20 -20 8 -1 14 13 -3 7 -15 18 31 26 17 27 16 12 4
-10 -20 -20 -20 -20 10 13 -1 -20 -20 -20 -18 -7 -18 -20 -20 -20 -19 -20 -20 -8 -2 -20 -1 -7 12 -3 -15 23 22 7 8
15 4 -3 -18 11 7 16 -19 -10 -20 -20 -20 -20 -19 -20 -20 -20 -20 -20 -20 -20 -20 -20 8 9 6 -0 -1 -20 -20 -5 16
19 10 13 11 18 16 13 5 -5 -10 -8 -20 -14 -6 -20 -20 -20 -20 -20 -20 -20 -20 -20 -20 -20 -20 -20 -20 -20 -20 -20 4
4 -0 16 17 23 13 18 26 18 25 -8 -13 8 -20 -18 -19 -20 -20 -20 -20 -20 -20 -20 -20 -20 -20 -20 -20 -20 -20 -20 -20
18 17 15 18 17 22 27 26 20 15 8 -7 17 1 6 9 1 -6 -15 -20 -20 -20 -20 -20 -20 -20 -20 -20 -20 -20 -7 -17
18 22 11 3 19 21 23 12 -20 6 -9 8 -13 10 13 11 12 4 -2 -2 4 6 12 5 14 23 20 2 14 -13 -18 -20
8 -10 -13 -15 -20 2 -20 -20 -14 -5 21 24 -15 -20 -18 -11 -9 2 -3 3 11 18 13 19 22 16 22 12 14 8 1 14
11 11 -4 -20 -14 -20 -20 2 -13 8 31 6 -11 -20 -20 -20 -20 -20 -20 -20 -11 -1 3 6 6 5 12 3 -7 -18 -20 -2

GFSFLT1_prec_radar_078.txt.gz
Reflectivity
-20 -20 -20 -20 -20 -20 -20 -19 -6 -7 -1 -2 -2 3 1 -4 -2 -10 -5 5 16 23 27 -18 -8 21 27 27 -10 9 -20 -20
-20 -20 -20 -20 -20 -20 -20 -16 -11 1 7 3 6 16 3 -2 5 -3 7 26 41 37 30 -17 26 15 29 20 3 19 6 -20
-20 -20 -20 -20 -20 -20 -20 -20 -13 -17 -6 -14 -5 -5 13 5 8 1 -0 14 16 37 37 30 30 13 28 27 22 -2 18 -20
-20 -20 -20 -20 -20 -20 -20 -20 -20 -7 -20 0 8 -0 7 15 13 6 -10 20 -10 26 35 35 25 24 25 16 18 5 -8 -3
-20 -20 -20 -20 -20 -20 -20 -20 -20 -20 -20 -0 -13 -17 -4 2 -6 -19 5 2 16 24 28 27 30 27 26 27 -1 -19 -17 6
-20 -20 -20 -20 -20 -20 -20 -20 -20 -20 -20 -20 -9 4 -19 7 -3 3 7 -2 2 30 31 34 30 31 25 28 16 -17 -18 -20
-20 -20 -20 -20 -20 -20 -20 -20 -20 -20 -20 -4 -18 -18 -9 16 7 11 11 -10 15 30 35 26 30 26 22 -12 -3 -2 -13 -20
-20 -20 -20 -20 -20 -20 -20 -20 -20 -20 -20 -16 2 7 0 -20 -8 -20 1 -3 15 13 27 21 26 27 26 13 8 8 -0 -19
-20 -20 -20 -20 -20 -14 -20 -20 -20 -3 -20 -17 7 -20 -20 -20 1 19 17 -1 2 7 18 30 22 16 24 -3 -19 -0 19 6
-20 -20 -20 -20 -20 -5 -13 -20 -20 -15 -20 -12 9 2 13 3 -15 -20 -20 -4 -9 -18 9 31 20 21 8 9 18 21 20 22
-20 -20 -20 -20 -20 -9 11 -20 -18 -20 -20 -20 -20 8 11 -20 -20 -20 3 2 11 17 -8 1 22 -9 17 -16 18 20 12 5
-20 -20 -15 -13 -20 7 6 -20 -7 -1 -20 -20 -16 -19 -3 -20 -13 -20 -20 -14 10 -20 11 13 11 16 15 5 17 -0 21 19
-11 -0 3 3 10 9 16 -8 -17 -4 1 -20 -19 -16 9 12 -4 -14 -20 7 13 14 12 9 2 -20 10 19 4 9 16 11
7 -2 13 8 11 14 23 14 -10 -0 13 -11 -1 -2 -18 -13 6 11 14 10 -13 2 10 8 9 9 8 6 2 6 8 1
14 11 12 14 17 18 21 3 13 13 16 -14 -20 -9 0 4 -8 11 8 10 13 2 -20 -20 -13 -5 -4 9 14 16 8 -9
24 3 15 19 20 18 24 19 17 20 11 5 -14 -20 -14 -2 15 19 8 0 14 13 13 14 3 -20 -17 -20 -9 8 1 -15
19 12 15 20 21 17 21 15 17 16 2 -3 15 20 -16 4 -5 7 2 -3 12 15 20 19 4 -20 14 -9 -20 -20 -20 4
23 26 19 22 22 18 20 21 19 10 -5 -14 -18 14 13 -9 13 14 14 18 2 -1 0 4 8 6 18 6 3 -0 0 4
18 16 16 13 19 19 10 -10 23 -6 -2 0 -20 6 25 7 -20 -17 -14 -12 1 11 3 1 9 5 11 3 -2 -7 -8 4

GFSFLT1_prec_radar_081.txt.gz
Reflectivity
-20 -20 -20 -20 -20 -20 -20 -20 -20 -20 -20 -20 -13 -18 1 -11 3 -5 6 20 4 27 4 -20 17 4 28 35 33 27 -20 -20
-20 -20 -20 -20 -20 -20 -20 -20 -20 -20 -20 -20 -20 0 -6 7 6 1 -3 -3 22 25 29 21 19 17 20 31 32 27 29 -20
-20 -20 -20 -20 -20 -20 -20 -20 -20 -20 -20 -20 -20 -4 8 3 8 7 -7 -4 9 -20 12 24 26 5 -1 29 29 31 -16 -20
-20 -20 -20 -20 -20 -20 -20 -20 -20 -20 -20 -20 -20 -12 11 13 18 20 -12 -4 11 23 35 26 36 -3 27 25 29 28 16 6
-20 -20 -20 -20 -20 -20 -20 -20 -20 -20 -20 -20 -13 -2 1 7 -1 4 -0 13 20 -11 -14 18 34 27 29 22 28 29 28 -4
-20 -20 -20 -20 -20 -20 -20 -20 -20 -20 -20 -20 -20 -20 7 -20 4 8 6 2 -7 4 14 31 30 31 28 25 24 31 25 8
-20 -20 -20 -20 -20 -20 -20 -20 -20 -20 -20 -20 -20 -20 1 -11 7 6 -0 -2 -4 22 23 26 32 28 28 27 29 29 22 19
-20 -20 -20 -20 -20 -20 -20 -20 -20 -20 -20 -20 -20 -20 5 -20 3 2 5 -9 -16 9 28 31 30 34 31 28 28 26 -1 -11
-20 -20 -20 -20 -20 -20 -20 -20 -20 -20 -20 -20 -20 -20 -18 6 9 2 -9 -6 -8 -19 6 21 20 27 25 21 22 8 5 -1
-20 -20 -20 -20 -20 -20 -20 -20 -20 -20 -20 -20 -20 -20 -19 4 -0 6 15 14 9 1 -7 20 24 22 23 24 26 14 8 16
-20 -20 -20 -20 -20 -20 -20 -20 -20 -19 -20 -20 -20 -6 -20 4 4 -5 -20 -20 -20 14 -1 19 10 27 11 22 14 21 23 13
-19 -20 -20 -20 -20 -16 4 11 3 3 -18 -20 -11 -1 -1 4 7 11 -16 14 -1 11 18 7 16 9 18 25 16 -13 22 22
5 5 0 -1 -20 14 22 8 -2 7 -9 -10 -13 -8 -18 7 5 8 9 2 3 14 17 10 1 14 14 14 31 19 7 -15
15 22 11 10 10 18 16 18 -7 -9 20 -2 1 -6 7 -8 -20 -20 -20 -20 -20 1 17 19 15 9 4 -14 -5 3 -14 -7
17 16 20 16 19 12 19 12 20 -6 5 -8 10 -7 6 -2 9 9 -7 -8 -20 9 11 -5 -1 -6 0 2 0 10 17 14
22 17 18 18 20 18 16 19 21 17 14 -0 6 -20 -20 -20 -20 -20 -16 -7 -3 -6 7 -8 5 -2 12 13 18 14 17 18
22 20 22 21 15 21 20 20 14 10 16 14 11 16 4 -0 5 3 -10 -20 -20 17 23 -5 -5 11 17 5 -20 -3 17 -20
17 28 23 25 20 15 19 19 21 21 18 20 24 10 12 18 8 10 13 8 -2 -6 5 -8 -8 -14 14 7 7 -20 -20 -20
28 25 24 24 23 18 22 21 20 27 18 27 23 23 15 5 16 24 23 21 5 14 19 15 7 8 14 13 18 8 1 5

GFSFLT1_prec_radar_084.txt.gz
Reflectivity
-20 -20 -20 -20 -20 -20 -20 -20 1 -20 -20 -20 -20 -7 -3 -17 -20 -20 -9 3 -20 -11 15 -3 9 -16 -1 7 32 35 27 32
-20 -20 -20 -20 -20 -20 -20 -20 -20 -20 -20 -20 -20 -20 4 -20 -15 -20 9 -4 -20 -20 -20 -11 -2 -4 -17 18 30 31 32 29
-20 -20 -20 -20 -20 -20 -20 -20 -20 -20 -20 -20 -20 -20 -20 -20 -12 -12 -1 -20 -16 6 7 -7 -20 11 1 -14 34 23 35 26
-20 -19 -20 -20 -20 -20 -20 -12 -20 -20 -20 -20 -20 -20 -20 -20 -16 10 -20 -20 -20 3 13 10 -4 23 30 15 19 26 27 31
-1 -18 -20 -20 -20 -20 -20 -20 -20 -20 -20 -20 -20 -20 -20 -20 -20 -2 -13 12 17 17 -20 -13 -20 14 21 24 24 28 30 30
-20 -20 -20 -20 -20 -20 -20 -20 -20 -20 -20 -20 -20 -20 -20 -20 -20 5 10 10 -20 21 -20 -20 -20 18 26 26 23 26 24 32
-20 -20 -20 -20 -20 -20 -20 -20 -18 -20 -20 -20 -20 -20 -20 -20 -16 7 2 -20 -19 -10 -15 -20 -6 16 30 24 27 28 27 22
-20 5 -16 -20 -20 -20 -20 -20 -10 -20 -20 -20 -20 -20 -20 -15 -8 -2 -4 -20 -20 -20 -0 -19 4 25 20 26 31 28 28 18
-20 -20 -14 -15 -20 -20 -20 -20 -20 -20 -20 -20 -20 -20 -20 -20 -12 -20 -20 -20 -18 -15 -20 -5 22 31 24 22 26 29 26 24
-20 -18 -20 4 -11 -20 -20 -20 -17 -18 4 -20 -20 -20 -20 -0 9 11 -19 -20 -3 -14 -20 5 22 19 27 27 25 25 24 25
6 -20 -20 -20 -5 29 -20 -20 -19 1 3 -20 -20 -20 -20 4 12 14 12 -20 -20 -20 -15 -16 -13 19 28 33 20 21 27 29
-2 16 23 -20 -6 -20 -19 6 -6 -19 9 3 -20 -20 -18 9 -13 -19 -20 -15 9 -20 -17 -20 11 8 14 23 30 28 28 25
-20 0 19 24 24 -6 -6 4 -9 2 9 17 -20 10 10 3 5 10 10 -17 -19 -20 7 -11 2 -7 15 26 19 -6 28 26
-1 -16 5 11 4 13 -11 21 16 18 -4 6 3 -11 6 15 13 11 14 -15 -5 -20 -10 -10 3 2 6 18 25 22 32 -2
6 11 -1 -5 19 -10 6 23 25 23 18 -17 -20 -14 -12 -12 9 2 16 11 -1 -14 -17 20 21 -9 16 12 11 4 19 29
2 20 16 10 15 13 13 26 20 22 25 22 21 4 13 8 7 8 3 9 6 -10 2 6 16 6 -11 1 13 10 27 14
-14 6 18 15 29 1 15 17 23 24 -16 -8 12 2 -12 -20 6 10 11 14 4 7 10 12 11 9 18 14 17 12 13 19
17 8 19 21 23 17 21 18 23 22 9 13 4 -3 1 -20 -20 -20 -20 -20 6 2 3 16 7 7 14 11 11 -20 -5 -13
22 21 11 26 27 26 22 26 24 9 16 14 14 11 17 18 4 10 6 -8 -2 -11 -20 -13 -14 1 10 7 12 -8 -13 -20